Time,TemperatureF,DewpointF,PressureIn,WindDirection,WindDirectionDegrees,WindSpeedMPH,WindSpeedGustMPH,Humidity,HourlyPrecipIn,Conditions,Clouds,dailyrainin,SolarRadiationWatts/m^2,SoftwareType,DateUTC
2013-10-28 00:00:00,36.2,24.4,30.05,West,276,2.2,2.2,62,0.00,,,0.00,0.00,VWS V14.01,2013-10-28 04:00:00,
2013-10-28 00:01:00,37.0,25.1,30.06,WNW,284,2.2,2.2,62,0.00,,,0.00,0.00,VWS V14.01,2013-10-28 04:01:00,
2013-10-28 00:02:00,37.2,25.3,30.06,WNW,299,2.2,2.2,62,0.00,,,0.00,0.00,VWS V14.01,2013-10-28 04:02:00,
2013-10-28 00:03:00,37.2,25.3,30.06,WNW,299,2.2,2.2,62,0.00,,,0.00,0.00,VWS V14.01,2013-10-28 04:03:00,
2013-10-28 00:06:00,37.2,24.3,30.06,WNW,290,2.2,2.3,59,0.00,,,0.00,0.00,VWS V14.01,2013-10-28 04:06:00,
2013-10-28 00:07:00,37.5,24.5,30.06,WNW,293,2.0,2.2,59,0.00,,,0.00,0.00,VWS V14.01,2013-10-28 04:07:00,
2013-10-28 00:08:00,37.0,23.9,30.06,WNW,296,2.2,2.2,59,0.00,,,0.00,0.00,VWS V14.01,2013-10-28 04:08:00,
2013-10-28 00:09:00,37.5,24.4,30.06,NW,314,2.5,2.8,59,0.00,,,0.00,0.00,VWS V14.01,2013-10-28 04:09:00,
2013-10-28 00:12:00,37.5,24.2,30.06,NW,315,2.3,2.7,58,0.00,,,0.00,0.00,VWS V14.01,2013-10-28 04:12:00,
2013-10-28 00:14:00,37.5,24.2,30.06,NW,315,2.7,2.7,58,0.00,,,0.00,0.00,VWS V14.01,2013-10-28 04:14:00,
2013-10-28 00:15:00,37.6,24.1,30.06,NW,314,2.3,2.3,58,0.00,,,0.00,0.00,VWS V14.01,2013-10-28 04:15:00,
2013-10-28 00:17:00,37.4,24.1,30.07,NW,314,1.3,1.8,58,0.00,,,0.00,0.00,VWS V14.01,2013-10-28 04:17:00,
2013-10-28 00:18:00,37.4,24.1,30.07,NW,314,1.3,1.8,58,0.00,,,0.00,0.00,VWS V14.01,2013-10-28 04:18:00,
2013-10-28 00:20:00,36.2,23.0,30.06,WNW,294,0.0,1.8,59,0.00,,,0.00,0.00,VWS V14.01,2013-10-28 04:20:00,
2013-10-28 00:21:00,36.2,23.0,30.06,WNW,294,0.0,1.8,59,0.00,,,0.00,0.00,VWS V14.01,2013-10-28 04:21:00,
2013-10-28 00:23:00,37.3,24.5,30.06,West,264,1.8,1.8,59,0.00,,,0.00,0.00,VWS V14.01,2013-10-28 04:23:00,
2013-10-28 00:24:00,37.2,24.1,30.06,WSW,252,2.0,2.0,59,0.00,,,0.00,0.00,VWS V14.01,2013-10-28 04:24:00,
2013-10-28 00:26:00,37.2,24.2,30.08,WSW,252,0.0,0.0,59,0.00,,,0.00,0.12,VWS V14.01,2013-10-28 04:26:00,
2013-10-28 00:28:00,36.2,23.2,30.07,WSW,252,0.0,0.0,59,0.00,,,0.00,0.00,VWS V14.01,2013-10-28 04:28:00,
2013-10-28 00:29:00,36.8,24.2,30.08,WSW,252,0.0,0.0,60,0.00,,,0.00,0.00,VWS V14.01,2013-10-28 04:29:00,
2013-10-28 00:30:00,36.4,23.9,30.06,WSW,252,0.0,0.0,60,0.00,,,0.00,0.00,VWS V14.01,2013-10-28 04:30:00,
2013-10-28 00:32:00,36.1,23.7,30.06,WSW,252,0.0,0.0,60,0.00,,,0.00,0.43,VWS V14.01,2013-10-28 04:32:00,
2013-10-28 00:33:00,35.7,23.5,30.06,WSW,252,0.0,0.0,61,0.00,,,0.00,0.12,VWS V14.01,2013-10-28 04:33:00,
2013-10-28 00:35:00,36.5,24.8,30.08,WSW,252,0.0,0.0,62,0.00,,,0.00,0.00,VWS V14.01,2013-10-28 04:35:00,
2013-10-28 00:36:00,36.7,24.9,30.07,NW,315,1.8,1.8,62,0.00,,,0.00,0.00,VWS V14.01,2013-10-28 04:36:00,
2013-10-28 00:39:00,37.1,25.0,30.07,NW,315,0.0,1.8,61,0.00,,,0.00,0.00,VWS V14.01,2013-10-28 04:39:00,
2013-10-28 00:42:00,36.5,24.3,30.06,NW,305,2.3,2.3,61,0.00,,,0.00,0.00,VWS V14.01,2013-10-28 04:42:00,
2013-10-28 00:43:00,36.2,24.0,30.06,NW,305,2.3,2.3,61,0.00,,,0.00,0.00,VWS V14.01,2013-10-28 04:43:00,
2013-10-28 00:44:00,36.9,24.6,30.08,NW,305,2.0,2.3,61,0.00,,,0.00,0.00,VWS V14.01,2013-10-28 04:44:00,
2013-10-28 00:45:00,36.9,24.6,30.07,NW,305,2.3,2.3,61,0.00,,,0.00,0.00,VWS V14.01,2013-10-28 04:45:00,
2013-10-28 00:47:00,37.2,24.9,30.07,NW,305,3.2,3.2,61,0.00,,,0.00,0.00,VWS V14.01,2013-10-28 04:47:00,
2013-10-28 00:48:00,37.3,24.9,30.07,NW,305,3.2,3.2,60,0.00,,,0.00,0.00,VWS V14.01,2013-10-28 04:48:00,
2013-10-28 00:49:00,37.2,24.5,30.07,NW,317,3.4,3.4,60,0.00,,,0.00,0.12,VWS V14.01,2013-10-28 04:49:00,
2013-10-28 00:51:00,37.2,24.1,30.07,NW,323,3.7,3.9,59,0.00,,,0.00,0.00,VWS V14.01,2013-10-28 04:51:00,
2013-10-28 00:52:00,37.3,24.1,30.07,NW,323,3.5,3.7,59,0.00,,,0.00,0.00,VWS V14.01,2013-10-28 04:52:00,
2013-10-28 00:54:00,37.9,24.4,30.06,WNW,303,3.0,3.0,58,0.00,,,0.00,0.00,VWS V14.01,2013-10-28 04:54:00,
2013-10-28 00:55:00,38.0,24.4,30.06,NW,312,3.0,3.0,58,0.00,,,0.00,0.00,VWS V14.01,2013-10-28 04:55:00,
2013-10-28 00:56:00,37.5,23.9,30.07,NW,312,2.8,3.0,57,0.00,,,0.00,0.00,VWS V14.01,2013-10-28 04:56:00,
2013-10-28 00:57:00,37.5,23.9,30.07,NW,312,2.8,3.0,57,0.00,,,0.00,0.00,VWS V14.01,2013-10-28 04:57:00,
2013-10-28 00:58:00,37.3,23.8,30.07,WNW,302,2.5,3.0,58,0.00,,,0.00,0.00,VWS V14.01,2013-10-28 04:58:00,
2013-10-28 01:00:00,37.4,23.9,30.07,West,275,2.8,3.0,58,0.00,,,0.00,0.00,VWS V14.01,2013-10-28 05:00:00,
2013-10-28 01:02:00,38.1,24.4,30.07,West,275,2.7,2.7,58,0.00,,,0.00,0.00,VWS V14.01,2013-10-28 05:02:00,
2013-10-28 01:05:00,38.0,23.9,30.08,WNW,289,3.2,3.4,57,0.00,,,0.00,0.00,VWS V14.01,2013-10-28 05:05:00,
2013-10-28 01:06:00,37.4,23.4,30.07,WNW,290,2.8,2.8,56,0.00,,,0.00,0.00,VWS V14.01,2013-10-28 05:06:00,
2013-10-28 01:07:00,37.5,23.5,30.07,WNW,290,2.7,2.8,57,0.00,,,0.00,0.00,VWS V14.01,2013-10-28 05:07:00,
2013-10-28 01:08:00,37.3,23.5,30.08,WNW,290,3.0,3.0,57,0.00,,,0.00,0.00,VWS V14.01,2013-10-28 05:08:00,
2013-10-28 01:11:00,36.9,23.1,30.07,WNW,290,2.5,3.0,57,0.00,,,0.00,0.00,VWS V14.01,2013-10-28 05:11:00,
2013-10-28 01:12:00,36.9,23.1,30.07,WNW,290,2.5,3.0,57,0.00,,,0.00,0.00,VWS V14.01,2013-10-28 05:12:00,
2013-10-28 01:13:00,37.0,23.5,30.08,West,276,3.0,3.0,58,0.00,,,0.00,0.12,VWS V14.01,2013-10-28 05:13:00,
2013-10-28 01:16:00,37.1,22.3,30.08,West,278,3.5,3.5,55,0.00,,,0.00,0.43,VWS V14.01,2013-10-28 05:16:00,
2013-10-28 01:17:00,36.9,23.4,30.07,West,280,3.4,3.5,58,0.00,,,0.00,0.00,VWS V14.01,2013-10-28 05:17:00,
2013-10-28 01:18:00,36.7,23.1,30.07,West,280,3.0,3.4,58,0.00,,,0.00,0.00,VWS V14.01,2013-10-28 05:18:00,
2013-10-28 01:19:00,36.3,22.8,30.06,West,280,3.0,3.2,58,0.00,,,0.00,0.00,VWS V14.01,2013-10-28 05:19:00,
2013-10-28 01:20:00,35.8,22.6,30.07,West,280,2.8,3.2,58,0.00,,,0.00,0.00,VWS V14.01,2013-10-28 05:20:00,
2013-10-28 01:22:00,35.4,22.7,30.07,West,280,2.8,2.8,60,0.00,,,0.00,0.00,VWS V14.01,2013-10-28 05:22:00,
2013-10-28 01:23:00,35.6,23.3,30.08,WNW,294,3.0,3.2,61,0.00,,,0.00,0.00,VWS V14.01,2013-10-28 05:23:00,
2013-10-28 01:24:00,35.5,23.2,30.09,WNW,294,3.0,3.0,61,0.00,,,0.00,0.00,VWS V14.01,2013-10-28 05:24:00,
2013-10-28 01:25:00,35.7,23.7,30.08,WNW,294,2.8,2.8,61,0.00,,,0.00,0.00,VWS V14.01,2013-10-28 05:25:00,
2013-10-28 01:28:00,35.4,23.6,30.08,WNW,294,2.8,2.8,62,0.00,,,0.00,0.00,VWS V14.01,2013-10-28 05:28:00,
2013-10-28 01:29:00,34.8,23.1,30.09,WNW,294,2.2,2.7,62,0.00,,,0.00,0.00,VWS V14.01,2013-10-28 05:29:00,
2013-10-28 01:30:00,34.7,23.2,30.08,WNW,294,2.3,2.7,62,0.00,,,0.00,0.00,VWS V14.01,2013-10-28 05:30:00,
2013-10-28 01:32:00,34.0,22.6,30.09,WNW,294,1.8,2.0,63,0.00,,,0.00,0.00,VWS V14.01,2013-10-28 05:32:00,
2013-10-28 01:33:00,34.2,23.6,30.08,WNW,294,1.8,2.0,65,0.00,,,0.00,0.00,VWS V14.01,2013-10-28 05:33:00,
2013-10-28 01:35:00,35.1,25.3,30.08,NW,316,1.8,2.0,67,0.00,,,0.00,0.12,VWS V14.01,2013-10-28 05:35:00,
2013-10-28 01:36:00,35.0,25.1,30.09,NW,316,2.0,2.0,67,0.00,,,0.00,0.00,VWS V14.01,2013-10-28 05:36:00,
2013-10-28 01:37:00,35.0,25.1,30.09,NW,316,1.0,2.0,67,0.00,,,0.00,0.00,VWS V14.01,2013-10-28 05:37:00,
2013-10-28 01:41:00,34.6,24.8,30.08,NW,316,2.2,2.2,67,0.00,,,0.00,0.00,VWS V14.01,2013-10-28 05:41:00,
2013-10-28 01:42:00,34.7,24.9,30.08,NW,316,2.2,2.3,67,0.00,,,0.00,0.00,VWS V14.01,2013-10-28 05:42:00,
2013-10-28 01:43:00,34.7,25.0,30.08,NW,316,2.3,2.3,67,0.00,,,0.00,0.00,VWS V14.01,2013-10-28 05:43:00,
2013-10-28 01:47:00,34.1,24.3,30.09,NW,316,0.0,0.0,67,0.00,,,0.00,0.00,VWS V14.01,2013-10-28 05:47:00,
2013-10-28 01:48:00,33.8,24.0,30.09,NW,316,0.0,0.0,67,0.00,,,0.00,0.00,VWS V14.01,2013-10-28 05:48:00,
2013-10-28 01:49:00,33.3,23.9,30.09,NW,316,0.0,0.0,68,0.00,,,0.00,0.00,VWS V14.01,2013-10-28 05:49:00,
2013-10-28 01:52:00,33.7,24.9,30.09,NW,316,0.0,0.0,70,0.00,,,0.00,0.00,VWS V14.01,2013-10-28 05:52:00,
2013-10-28 01:53:00,33.9,25.1,30.08,NW,316,0.0,0.0,70,0.00,,,0.00,0.00,VWS V14.01,2013-10-28 05:53:00,
2013-10-28 01:54:00,33.8,25.0,30.09,WNW,290,0.0,0.0,70,0.00,,,0.00,0.00,VWS V14.01,2013-10-28 05:54:00,
2013-10-28 01:55:00,34.2,25.4,30.09,WNW,290,0.0,0.0,70,0.00,,,0.00,0.00,VWS V14.01,2013-10-28 05:55:00,
2013-10-28 01:58:00,36.3,27.5,30.09,West,261,3.0,3.0,70,0.00,,,0.00,0.12,VWS V14.01,2013-10-28 05:58:00,
2013-10-28 01:59:00,36.4,27.1,30.09,WSW,256,3.0,3.0,69,0.00,,,0.00,0.00,VWS V14.01,2013-10-28 05:59:00,
2013-10-28 02:00:00,36.0,25.9,30.09,WSW,256,3.0,3.0,66,0.00,,,0.00,0.00,VWS V14.01,2013-10-28 06:00:00,
2013-10-28 02:01:00,36.3,26.0,30.09,WSW,256,3.0,3.0,66,0.00,,,0.00,0.00,VWS V14.01,2013-10-28 06:01:00,
2013-10-28 02:04:00,37.0,25.5,30.10,West,266,3.2,3.2,63,0.00,,,0.00,0.00,VWS V14.01,2013-10-28 06:04:00,
2013-10-28 02:05:00,37.0,25.3,30.10,West,274,3.2,3.2,62,0.00,,,0.00,0.00,VWS V14.01,2013-10-28 06:05:00,
2013-10-28 02:06:00,36.8,25.0,30.10,West,274,2.8,3.2,62,0.00,,,0.00,0.00,VWS V14.01,2013-10-28 06:06:00,
2013-10-28 02:10:00,35.7,23.6,30.09,West,274,2.7,2.7,61,0.00,,,0.00,0.43,VWS V14.01,2013-10-28 06:10:00,
2013-10-28 02:11:00,35.4,23.4,30.09,West,274,2.3,2.7,61,0.00,,,0.00,0.00,VWS V14.01,2013-10-28 06:11:00,
2013-10-28 02:13:00,32.6,20.9,30.10,West,274,0.0,2.2,62,0.00,,,0.00,0.00,VWS V14.01,2013-10-28 06:13:00,
2013-10-28 02:16:00,35.4,25.8,30.10,WSW,248,3.7,3.7,68,0.00,,,0.00,0.00,VWS V14.01,2013-10-28 06:16:00,
2013-10-28 02:17:00,36.7,26.4,30.09,WSW,252,4.5,4.5,66,0.00,,,0.00,0.00,VWS V14.01,2013-10-28 06:17:00,
2013-10-28 02:19:00,36.9,25.4,30.10,WSW,252,4.0,4.2,63,0.00,,,0.00,0.00,VWS V14.01,2013-10-28 06:19:00,
2013-10-28 02:20:00,36.6,24.9,30.10,WSW,252,4.0,4.0,62,0.00,,,0.00,0.00,VWS V14.01,2013-10-28 06:20:00,
2013-10-28 02:21:00,35.8,23.7,30.10,WSW,253,3.5,3.5,61,0.00,,,0.00,0.00,VWS V14.01,2013-10-28 06:21:00,
2013-10-28 02:22:00,35.7,23.8,30.10,WSW,253,3.4,3.5,62,0.00,,,0.00,0.43,VWS V14.01,2013-10-28 06:22:00,
2013-10-28 02:23:00,34.8,21.4,30.10,WSW,246,3.0,3.0,58,0.00,,,0.00,0.00,VWS V14.01,2013-10-28 06:23:00,
2013-10-28 02:27:00,34.7,24.1,30.10,WSW,246,2.3,2.7,65,0.00,,,0.00,0.43,VWS V14.01,2013-10-28 06:27:00,
2013-10-28 02:28:00,32.8,22.3,30.10,WSW,246,0.0,1.1,65,0.00,,,0.00,0.00,VWS V14.01,2013-10-28 06:28:00,
2013-10-28 02:29:00,31.8,20.9,30.10,WSW,246,0.0,0.0,64,0.00,,,0.00,0.73,VWS V14.01,2013-10-28 06:29:00,
2013-10-28 02:32:00,33.1,24.4,30.09,WSW,246,0.0,0.0,70,0.00,,,0.00,0.00,VWS V14.01,2013-10-28 06:32:00,
2013-10-28 02:33:00,32.8,24.2,30.09,WSW,246,0.0,0.0,70,0.00,,,0.00,0.00,VWS V14.01,2013-10-28 06:33:00,
2013-10-28 02:34:00,32.9,24.3,30.10,WSW,246,0.0,0.0,70,0.00,,,0.00,0.00,VWS V14.01,2013-10-28 06:34:00,
2013-10-28 02:35:00,33.5,25.2,30.10,WSW,246,0.0,0.0,71,0.00,,,0.00,0.00,VWS V14.01,2013-10-28 06:35:00,
2013-10-28 02:37:00,34.0,26.3,30.10,West,278,0.0,0.0,73,0.00,,,0.00,0.00,VWS V14.01,2013-10-28 06:37:00,
2013-10-28 02:38:00,34.9,27.1,30.10,West,278,0.0,0.0,73,0.00,,,0.00,0.00,VWS V14.01,2013-10-28 06:38:00,
2013-10-28 02:39:00,33.3,25.5,30.11,West,278,0.0,0.0,72,0.00,,,0.00,0.00,VWS V14.01,2013-10-28 06:39:00,
2013-10-28 02:40:00,33.5,25.4,30.10,West,278,0.0,0.0,72,0.00,,,0.00,0.00,VWS V14.01,2013-10-28 06:40:00,
2013-10-28 02:41:00,32.9,24.9,30.11,West,278,0.0,0.0,72,0.00,,,0.00,0.00,VWS V14.01,2013-10-28 06:41:00,
2013-10-28 02:43:00,33.0,25.2,30.10,West,278,0.0,0.0,73,0.00,,,0.00,0.00,VWS V14.01,2013-10-28 06:43:00,
2013-10-28 02:44:00,32.0,24.2,30.10,West,278,0.0,0.0,73,0.00,,,0.00,0.00,VWS V14.01,2013-10-28 06:44:00,
2013-10-28 02:45:00,32.4,24.7,30.11,West,278,0.0,0.0,73,0.00,,,0.00,0.00,VWS V14.01,2013-10-28 06:45:00,
2013-10-28 02:46:00,32.3,23.0,30.11,West,278,0.0,0.0,68,0.00,,,0.00,0.00,VWS V14.01,2013-10-28 06:46:00,
2013-10-28 02:47:00,32.3,23.0,30.11,West,278,0.0,0.0,68,0.00,,,0.00,0.00,VWS V14.01,2013-10-28 06:47:00,
2013-10-28 02:48:00,32.5,25.6,30.11,West,278,0.0,0.0,75,0.00,,,0.00,0.00,VWS V14.01,2013-10-28 06:48:00,
2013-10-28 02:50:00,33.4,26.9,30.12,West,278,0.0,0.0,77,0.00,,,0.00,0.00,VWS V14.01,2013-10-28 06:50:00,
2013-10-28 02:52:00,32.6,25.9,30.11,West,278,0.0,0.0,76,0.00,,,0.00,0.00,VWS V14.01,2013-10-28 06:52:00,
2013-10-28 02:54:00,32.1,25.3,30.11,West,278,0.0,0.0,76,0.00,,,0.00,0.00,VWS V14.01,2013-10-28 06:54:00,
2013-10-28 02:56:00,32.3,26.3,30.11,West,278,0.0,0.0,78,0.00,,,0.00,0.00,VWS V14.01,2013-10-28 06:56:00,
2013-10-28 02:57:00,32.7,26.8,30.11,West,278,0.0,0.0,79,0.00,,,0.00,0.43,VWS V14.01,2013-10-28 06:57:00,
2013-10-28 02:59:00,33.0,27.2,30.12,West,279,0.0,0.0,79,0.00,,,0.00,0.00,VWS V14.01,2013-10-28 06:59:00,
2013-10-28 03:00:00,33.3,27.4,30.11,West,279,0.0,0.0,79,0.00,,,0.00,0.00,VWS V14.01,2013-10-28 07:00:00,
2013-10-28 03:01:00,33.3,27.4,30.11,West,279,0.0,0.0,79,0.00,,,0.00,0.00,VWS V14.01,2013-10-28 07:01:00,
2013-10-28 03:02:00,33.3,27.4,30.11,West,279,0.0,0.0,79,0.00,,,0.00,0.00,VWS V14.01,2013-10-28 07:02:00,
2013-10-28 03:03:00,33.0,26.9,30.10,West,279,0.0,0.0,78,0.00,,,0.00,0.00,VWS V14.01,2013-10-28 07:03:00,
2013-10-28 03:06:00,31.9,25.7,30.11,West,279,0.0,0.0,78,0.00,,,0.00,0.00,VWS V14.01,2013-10-28 07:06:00,
2013-10-28 03:07:00,32.2,26.3,30.12,West,279,0.0,0.0,78,0.00,,,0.00,0.00,VWS V14.01,2013-10-28 07:07:00,
2013-10-28 03:08:00,32.3,26.7,30.12,West,279,0.0,0.0,80,0.00,,,0.00,0.00,VWS V14.01,2013-10-28 07:08:00,
2013-10-28 03:10:00,32.8,26.7,30.11,West,279,0.0,0.0,78,0.00,,,0.00,0.00,VWS V14.01,2013-10-28 07:10:00,
2013-10-28 03:11:00,32.5,27.3,30.11,West,279,0.0,0.0,81,0.00,,,0.00,0.00,VWS V14.01,2013-10-28 07:11:00,
2013-10-28 03:13:00,32.6,27.5,30.11,West,279,0.0,0.0,81,0.00,,,0.00,0.00,VWS V14.01,2013-10-28 07:13:00,
2013-10-28 03:14:00,32.9,27.9,30.11,West,279,0.0,0.0,82,0.00,,,0.00,0.00,VWS V14.01,2013-10-28 07:14:00,
2013-10-28 03:15:00,32.5,27.5,30.11,West,279,0.0,0.0,82,0.00,,,0.00,0.06,VWS V14.01,2013-10-28 07:15:00,
2013-10-28 03:17:00,31.8,27.0,30.12,West,279,0.0,0.0,82,0.00,,,0.00,0.00,VWS V14.01,2013-10-28 07:17:00,
2013-10-28 03:18:00,31.6,26.8,30.12,West,279,0.0,0.0,82,0.00,,,0.00,0.00,VWS V14.01,2013-10-28 07:18:00,
2013-10-28 03:19:00,31.3,26.7,30.11,West,279,0.0,0.0,83,0.00,,,0.00,0.00,VWS V14.01,2013-10-28 07:19:00,
2013-10-28 03:21:00,30.9,26.2,30.11,West,279,0.0,0.0,83,0.00,,,0.00,0.00,VWS V14.01,2013-10-28 07:21:00,
2013-10-28 03:22:00,31.3,26.8,30.12,West,279,0.0,0.0,83,0.00,,,0.00,0.00,VWS V14.01,2013-10-28 07:22:00,
2013-10-28 03:23:00,32.0,28.1,30.12,West,278,0.0,0.0,85,0.00,,,0.00,0.00,VWS V14.01,2013-10-28 07:23:00,
2013-10-28 03:24:00,32.0,28.3,30.12,SW,214,0.0,0.0,86,0.00,,,0.00,0.00,VWS V14.01,2013-10-28 07:24:00,
2013-10-28 03:25:00,32.1,28.3,30.12,SW,214,0.0,0.0,86,0.00,,,0.00,0.12,VWS V14.01,2013-10-28 07:25:00,
2013-10-28 03:26:00,30.9,26.5,30.11,SW,214,0.0,0.0,84,0.00,,,0.00,0.06,VWS V14.01,2013-10-28 07:26:00,
2013-10-28 03:27:00,30.7,26.3,30.12,SSW,205,0.0,0.0,83,0.00,,,0.00,0.12,VWS V14.01,2013-10-28 07:27:00,
2013-10-28 03:28:00,30.7,26.3,30.12,SSW,205,0.0,0.0,83,0.00,,,0.00,0.00,VWS V14.01,2013-10-28 07:28:00,
2013-10-28 03:30:00,29.9,25.5,30.11,SSW,205,0.0,0.0,83,0.00,,,0.00,0.00,VWS V14.01,2013-10-28 07:30:00,
2013-10-28 03:32:00,29.0,24.5,30.11,SSW,205,0.0,0.0,83,0.00,,,0.00,0.00,VWS V14.01,2013-10-28 07:32:00,
2013-10-28 03:34:00,28.7,24.3,30.12,SSW,205,0.0,0.0,83,0.00,,,0.00,0.00,VWS V14.01,2013-10-28 07:34:00,
2013-10-28 03:36:00,28.9,24.7,30.12,SSW,205,0.0,0.0,84,0.00,,,0.00,0.00,VWS V14.01,2013-10-28 07:36:00,
2013-10-28 03:37:00,29.1,25.2,30.12,SSW,205,0.0,0.0,85,0.00,,,0.00,0.00,VWS V14.01,2013-10-28 07:37:00,
2013-10-28 03:38:00,29.2,25.3,30.12,SSW,205,0.0,0.0,85,0.00,,,0.00,0.00,VWS V14.01,2013-10-28 07:38:00,
2013-10-28 03:39:00,29.6,26.2,30.12,SSW,205,0.0,0.0,87,0.00,,,0.00,0.00,VWS V14.01,2013-10-28 07:39:00,
2013-10-28 03:41:00,30.1,27.2,30.12,SSW,205,0.0,0.0,89,0.00,,,0.00,0.00,VWS V14.01,2013-10-28 07:41:00,
2013-10-28 03:42:00,30.0,27.1,30.12,SSW,205,0.0,0.0,89,0.00,,,0.00,0.00,VWS V14.01,2013-10-28 07:42:00,
2013-10-28 03:43:00,29.9,27.2,30.12,SSW,205,0.0,0.0,89,0.00,,,0.00,0.00,VWS V14.01,2013-10-28 07:43:00,
2013-10-28 03:45:00,29.5,26.8,30.12,SSW,205,0.0,0.0,89,0.00,,,0.00,0.00,VWS V14.01,2013-10-28 07:45:00,
2013-10-28 03:46:00,29.4,26.6,30.12,SSW,205,0.0,0.0,89,0.00,,,0.00,0.00,VWS V14.01,2013-10-28 07:46:00,
2013-10-28 03:47:00,29.8,27.2,30.12,SSW,205,0.0,0.0,90,0.00,,,0.00,0.00,VWS V14.01,2013-10-28 07:47:00,
2013-10-28 03:49:00,29.9,27.6,30.12,SSW,205,0.0,0.0,91,0.00,,,0.00,0.00,VWS V14.01,2013-10-28 07:49:00,
2013-10-28 03:51:00,30.0,27.7,30.17,SSW,205,0.0,0.0,91,0.00,,,0.00,0.00,VWS V14.01,2013-10-28 07:51:00,
2013-10-28 03:52:00,29.5,27.3,30.14,SSW,205,0.0,0.0,91,0.00,,,0.00,0.00,VWS V14.01,2013-10-28 07:52:00,
2013-10-28 03:53:00,29.6,27.3,30.13,SSW,205,0.0,0.0,91,0.00,,,0.00,0.00,VWS V14.01,2013-10-28 07:53:00,
2013-10-28 03:54:00,28.5,26.1,30.13,SSW,205,0.0,0.0,90,0.00,,,0.00,0.73,VWS V14.01,2013-10-28 07:54:00,
2013-10-28 03:57:00,28.9,26.5,30.13,SSW,205,0.0,0.0,91,0.00,,,0.00,0.43,VWS V14.01,2013-10-28 07:57:00,
2013-10-28 03:58:00,29.1,26.9,30.13,SSW,205,0.0,0.0,91,0.00,,,0.00,0.00,VWS V14.01,2013-10-28 07:58:00,
2013-10-28 03:59:00,28.9,26.9,30.13,SSW,205,0.0,0.0,92,0.00,,,0.00,0.00,VWS V14.01,2013-10-28 07:59:00,
2013-10-28 04:01:00,28.4,26.3,30.18,SSW,205,0.0,0.0,92,0.00,,,0.00,0.00,VWS V14.01,2013-10-28 08:01:00,
2013-10-28 04:02:00,28.4,26.4,30.13,SSW,205,0.0,0.0,92,0.00,,,0.00,0.00,VWS V14.01,2013-10-28 08:02:00,
2013-10-28 04:04:00,29.1,27.2,30.12,SSW,205,0.0,0.0,92,0.00,,,0.00,0.00,VWS V14.01,2013-10-28 08:04:00,
2013-10-28 04:05:00,29.2,27.4,30.13,SSW,205,0.0,0.0,93,0.00,,,0.00,0.00,VWS V14.01,2013-10-28 08:05:00,
2013-10-28 04:06:00,29.8,28.2,30.13,SSW,205,0.0,0.0,94,0.00,,,0.00,0.00,VWS V14.01,2013-10-28 08:06:00,
2013-10-28 04:07:00,30.0,28.5,30.13,SSW,205,0.0,0.0,94,0.00,,,0.00,0.00,VWS V14.01,2013-10-28 08:07:00,
2013-10-28 04:09:00,29.1,27.6,30.13,SSW,205,0.0,0.0,94,0.00,,,0.00,0.00,VWS V14.01,2013-10-28 08:09:00,
2013-10-28 04:10:00,28.8,27.1,30.13,SSW,205,0.0,0.0,93,0.00,,,0.00,0.00,VWS V14.01,2013-10-28 08:10:00,
2013-10-28 04:11:00,28.9,27.1,30.13,SSW,205,0.0,0.0,93,0.00,,,0.00,0.00,VWS V14.01,2013-10-28 08:11:00,
2013-10-28 04:12:00,28.6,26.6,30.13,SSW,205,0.0,0.0,92,0.00,,,0.00,0.43,VWS V14.01,2013-10-28 08:12:00,
2013-10-28 04:14:00,30.4,28.8,30.13,SSW,205,0.0,0.0,94,0.00,,,0.00,0.00,VWS V14.01,2013-10-28 08:14:00,
2013-10-28 04:16:00,30.8,29.5,30.13,SSW,205,0.0,0.0,95,0.00,,,0.00,0.00,VWS V14.01,2013-10-28 08:16:00,
2013-10-28 04:17:00,30.6,29.3,30.13,SSW,205,0.0,0.0,95,0.00,,,0.00,0.00,VWS V14.01,2013-10-28 08:17:00,
2013-10-28 04:18:00,30.7,29.4,30.13,SSW,205,0.0,0.0,95,0.00,,,0.00,0.00,VWS V14.01,2013-10-28 08:18:00,
2013-10-28 04:19:00,30.3,29.0,30.13,SSW,205,0.0,0.0,95,0.00,,,0.00,0.43,VWS V14.01,2013-10-28 08:19:00,
2013-10-28 04:21:00,30.5,29.2,30.13,SSW,205,0.0,0.0,95,0.00,,,0.00,0.00,VWS V14.01,2013-10-28 08:21:00,
2013-10-28 04:22:00,30.0,28.6,30.13,SSW,205,0.0,0.0,94,0.00,,,0.00,0.00,VWS V14.01,2013-10-28 08:22:00,
2013-10-28 04:23:00,30.0,28.5,30.13,SSW,205,0.0,0.0,94,0.00,,,0.00,0.00,VWS V14.01,2013-10-28 08:23:00,
2013-10-28 04:24:00,30.3,28.8,30.14,SSW,205,0.0,0.0,94,0.00,,,0.00,0.00,VWS V14.01,2013-10-28 08:24:00,
2013-10-28 04:26:00,29.3,27.7,30.14,SSW,205,0.0,0.0,94,0.00,,,0.00,0.00,VWS V14.01,2013-10-28 08:26:00,
2013-10-28 04:27:00,29.0,27.5,30.14,SSW,205,0.0,0.0,94,0.00,,,0.00,0.00,VWS V14.01,2013-10-28 08:27:00,
2013-10-28 04:29:00,31.0,29.7,30.13,SSW,205,0.0,0.0,95,0.00,,,0.00,0.00,VWS V14.01,2013-10-28 08:29:00,
2013-10-28 04:30:00,30.5,29.4,30.13,SSW,205,0.0,0.0,95,0.00,,,0.00,0.00,VWS V14.01,2013-10-28 08:30:00,
2013-10-28 04:32:00,30.6,28.4,30.14,SSW,205,0.0,0.0,91,0.00,,,0.00,0.00,VWS V14.01,2013-10-28 08:32:00,
2013-10-28 04:33:00,30.5,28.9,30.14,SSW,205,0.0,0.0,94,0.00,,,0.00,0.00,VWS V14.01,2013-10-28 08:33:00,
2013-10-28 04:34:00,30.6,28.8,30.14,SSW,205,0.0,0.0,93,0.00,,,0.00,0.00,VWS V14.01,2013-10-28 08:34:00,
2013-10-28 04:35:00,29.9,27.9,30.14,SSW,205,0.0,0.0,92,0.00,,,0.00,0.00,VWS V14.01,2013-10-28 08:35:00,
2013-10-28 04:37:00,30.6,28.6,30.14,SSW,205,0.0,0.0,92,0.00,,,0.00,0.00,VWS V14.01,2013-10-28 08:37:00,
2013-10-28 04:39:00,30.0,27.9,30.14,SSW,205,0.0,0.0,92,0.00,,,0.00,0.12,VWS V14.01,2013-10-28 08:39:00,
2013-10-28 04:40:00,29.0,26.7,30.13,SSW,205,0.0,0.0,91,0.00,,,0.00,0.00,VWS V14.01,2013-10-28 08:40:00,
2013-10-28 04:41:00,29.9,27.5,30.14,SSW,205,0.0,0.0,91,0.00,,,0.00,0.00,VWS V14.01,2013-10-28 08:41:00,
2013-10-28 04:42:00,31.2,28.9,30.14,SSW,205,0.0,0.0,91,0.00,,,0.00,0.00,VWS V14.01,2013-10-28 08:42:00,
2013-10-28 04:44:00,30.5,28.7,30.14,SSW,205,0.0,0.0,93,0.00,,,0.00,0.00,VWS V14.01,2013-10-28 08:44:00,
2013-10-28 04:46:00,31.2,29.5,30.13,SSW,205,0.0,0.0,93,0.00,,,0.00,0.00,VWS V14.01,2013-10-28 08:46:00,
2013-10-28 04:47:00,31.3,29.6,30.13,SSW,205,0.0,0.0,93,0.00,,,0.00,0.12,VWS V14.01,2013-10-28 08:47:00,
2013-10-28 04:49:00,32.1,30.8,30.18,SSW,205,0.0,0.0,95,0.00,,,0.00,0.00,VWS V14.01,2013-10-28 08:49:00,
2013-10-28 04:50:00,32.2,30.9,30.14,SSW,205,0.0,0.0,95,0.00,,,0.00,0.00,VWS V14.01,2013-10-28 08:50:00,
2013-10-28 04:51:00,32.4,31.1,30.13,SSW,205,0.0,0.0,95,0.00,,,0.00,0.00,VWS V14.01,2013-10-28 08:51:00,
2013-10-28 04:53:00,32.3,30.7,30.13,SSW,205,0.0,0.0,94,0.00,,,0.00,0.00,VWS V14.01,2013-10-28 08:53:00,
2013-10-28 04:54:00,32.1,30.5,30.13,SSW,205,0.0,0.0,93,0.00,,,0.00,0.00,VWS V14.01,2013-10-28 08:54:00,
2013-10-28 04:55:00,32.1,30.0,30.14,SSW,205,0.0,0.0,92,0.00,,,0.00,0.00,VWS V14.01,2013-10-28 08:55:00,
2013-10-28 04:59:00,32.2,29.6,30.14,SSW,205,0.0,0.0,90,0.00,,,0.00,0.00,VWS V14.01,2013-10-28 08:59:00,
2013-10-28 05:00:00,32.4,29.7,30.13,SSW,205,0.0,0.0,90,0.00,,,0.00,0.00,VWS V14.01,2013-10-28 09:00:00,
2013-10-28 05:01:00,32.4,29.6,30.14,SSW,205,0.0,0.0,89,0.00,,,0.00,0.00,VWS V14.01,2013-10-28 09:01:00,
2013-10-28 05:03:00,32.5,28.5,30.13,SSW,205,0.0,0.0,85,0.00,,,0.00,0.00,VWS V14.01,2013-10-28 09:03:00,
2013-10-28 05:05:00,32.5,29.2,30.14,SSW,205,0.0,0.0,88,0.00,,,0.00,0.00,VWS V14.01,2013-10-28 09:05:00,
2013-10-28 05:06:00,32.5,29.0,30.14,SSW,205,0.0,0.0,87,0.00,,,0.00,0.00,VWS V14.01,2013-10-28 09:06:00,
2013-10-28 05:07:00,32.5,28.9,30.14,NW,309,0.0,0.0,86,0.00,,,0.00,0.00,VWS V14.01,2013-10-28 09:07:00,
2013-10-28 05:09:00,32.4,28.7,30.14,NW,309,0.0,0.0,86,0.00,,,0.00,0.00,VWS V14.01,2013-10-28 09:09:00,
2013-10-28 05:10:00,32.8,29.1,30.14,NW,309,2.0,2.2,86,0.00,,,0.00,0.00,VWS V14.01,2013-10-28 09:10:00,
2013-10-28 05:11:00,32.7,28.7,30.14,NW,315,1.6,2.2,85,0.00,,,0.00,0.00,VWS V14.01,2013-10-28 09:11:00,
2013-10-28 05:12:00,32.7,28.5,30.14,NW,315,1.0,2.2,84,0.00,,,0.00,0.00,VWS V14.01,2013-10-28 09:12:00,
2013-10-28 05:13:00,32.6,28.3,30.14,NW,315,1.5,2.2,84,0.00,,,0.00,0.00,VWS V14.01,2013-10-28 09:13:00,
2013-10-28 05:15:00,33.1,28.7,30.14,NW,315,2.5,2.5,84,0.00,,,0.00,0.00,VWS V14.01,2013-10-28 09:15:00,
2013-10-28 05:16:00,32.7,28.1,30.14,NW,315,1.8,2.5,83,0.00,,,0.00,0.00,VWS V14.01,2013-10-28 09:16:00,
2013-10-28 05:17:00,32.5,27.8,30.14,NW,315,0.0,2.5,83,0.00,,,0.00,0.12,VWS V14.01,2013-10-28 09:17:00,
2013-10-28 05:18:00,32.4,27.6,30.14,NW,315,0.0,2.5,82,0.00,,,0.00,0.00,VWS V14.01,2013-10-28 09:18:00,
2013-10-28 05:20:00,32.3,27.5,30.13,NW,315,0.0,2.5,82,0.00,,,0.00,0.00,VWS V14.01,2013-10-28 09:20:00,
2013-10-28 05:21:00,32.3,27.5,30.13,NW,315,0.0,2.5,82,0.00,,,0.00,0.00,VWS V14.01,2013-10-28 09:21:00,
2013-10-28 05:23:00,32.5,27.8,30.13,NW,315,0.0,2.5,82,0.00,,,0.00,0.00,VWS V14.01,2013-10-28 09:23:00,
2013-10-28 05:24:00,32.5,27.8,30.14,NW,315,0.0,2.5,82,0.00,,,0.00,0.00,VWS V14.01,2013-10-28 09:24:00,
2013-10-28 05:26:00,32.3,27.6,30.14,NW,315,0.0,2.5,82,0.00,,,0.00,0.00,VWS V14.01,2013-10-28 09:26:00,
2013-10-28 05:28:00,31.2,26.5,30.14,NW,315,0.0,2.5,82,0.00,,,0.00,0.00,VWS V14.01,2013-10-28 09:28:00,
2013-10-28 05:29:00,31.4,26.6,30.14,NW,315,0.0,2.5,82,0.00,,,0.00,0.00,VWS V14.01,2013-10-28 09:29:00,
2013-10-28 05:30:00,31.5,27.0,30.14,NW,315,0.0,2.5,83,0.00,,,0.00,0.00,VWS V14.01,2013-10-28 09:30:00,
2013-10-28 05:31:00,30.7,26.2,30.14,NW,314,0.0,2.5,83,0.00,,,0.00,0.43,VWS V14.01,2013-10-28 09:31:00,
2013-10-28 05:34:00,30.4,26.3,30.14,NW,314,0.0,2.5,84,0.00,,,0.00,0.12,VWS V14.01,2013-10-28 09:34:00,
2013-10-28 05:36:00,30.6,27.0,30.14,NW,315,0.0,2.5,86,0.00,,,0.00,0.00,VWS V14.01,2013-10-28 09:36:00,
2013-10-28 05:38:00,30.2,27.0,30.14,NW,315,0.0,2.5,88,0.00,,,0.00,0.00,VWS V14.01,2013-10-28 09:38:00,
2013-10-28 05:40:00,29.9,27.1,30.15,NW,315,0.0,2.5,89,0.00,,,0.00,0.00,VWS V14.01,2013-10-28 09:40:00,
2013-10-28 05:41:00,29.6,26.8,30.14,NW,315,0.0,2.5,89,0.00,,,0.00,0.00,VWS V14.01,2013-10-28 09:41:00,
2013-10-28 05:42:00,29.8,27.1,30.14,NW,315,0.0,2.5,90,0.00,,,0.00,0.00,VWS V14.01,2013-10-28 09:42:00,
2013-10-28 05:44:00,30.2,27.9,30.14,NW,315,0.0,2.5,91,0.00,,,0.00,0.00,VWS V14.01,2013-10-28 09:44:00,
2013-10-28 05:45:00,29.4,27.2,30.14,NW,315,0.0,2.5,91,0.00,,,0.00,0.00,VWS V14.01,2013-10-28 09:45:00,
2013-10-28 05:46:00,29.3,27.1,30.14,NW,315,0.0,2.5,91,0.00,,,0.00,0.12,VWS V14.01,2013-10-28 09:46:00,
2013-10-28 05:47:00,30.2,28.1,30.15,NW,315,0.0,2.5,92,0.00,,,0.00,0.00,VWS V14.01,2013-10-28 09:47:00,
2013-10-28 05:49:00,30.8,29.1,30.15,NW,315,0.0,2.5,93,0.00,,,0.00,0.00,VWS V14.01,2013-10-28 09:49:00,
2013-10-28 05:50:00,30.6,29.0,30.15,NW,314,0.0,2.5,94,0.00,,,0.00,0.00,VWS V14.01,2013-10-28 09:50:00,
2013-10-28 05:52:00,30.6,29.1,30.15,NW,315,0.0,2.5,94,0.00,,,0.00,0.00,VWS V14.01,2013-10-28 09:52:00,
2013-10-28 05:53:00,30.6,29.2,30.15,NW,315,0.0,2.5,94,0.00,,,0.00,0.00,VWS V14.01,2013-10-28 09:53:00,
2013-10-28 05:54:00,30.6,29.1,30.15,NW,315,0.0,2.5,94,0.00,,,0.00,0.00,VWS V14.01,2013-10-28 09:54:00,
2013-10-28 05:55:00,30.4,29.0,30.15,NW,315,0.0,2.5,94,0.00,,,0.00,0.00,VWS V14.01,2013-10-28 09:55:00,
2013-10-28 05:58:00,30.2,28.8,30.15,NW,315,0.0,2.5,95,0.00,,,0.00,0.00,VWS V14.01,2013-10-28 09:58:00,
2013-10-28 05:59:00,30.2,28.8,30.14,NW,315,0.0,2.5,95,0.00,,,0.00,0.00,VWS V14.01,2013-10-28 09:59:00,
2013-10-28 06:01:00,30.0,28.7,30.15,NW,315,0.0,0.0,95,0.00,,,0.00,0.00,VWS V14.01,2013-10-28 10:01:00,
2013-10-28 06:02:00,29.9,28.6,30.15,NW,315,0.0,0.0,95,0.00,,,0.00,0.43,VWS V14.01,2013-10-28 10:02:00,
2013-10-28 06:04:00,30.2,29.0,30.16,NW,315,0.0,0.0,95,0.00,,,0.00,0.00,VWS V14.01,2013-10-28 10:04:00,
2013-10-28 06:05:00,30.6,27.2,30.16,NW,315,0.0,0.0,87,0.00,,,0.00,0.00,VWS V14.01,2013-10-28 10:05:00,
2013-10-28 06:07:00,30.1,29.2,30.16,NNE,16,0.0,0.0,96,0.00,,,0.00,0.00,VWS V14.01,2013-10-28 10:07:00,
2013-10-28 06:08:00,30.1,29.1,30.16,NNE,16,0.0,0.0,96,0.00,,,0.00,0.00,VWS V14.01,2013-10-28 10:08:00,
2013-10-28 06:09:00,29.9,28.8,30.16,NNE,16,0.0,0.0,96,0.00,,,0.00,0.00,VWS V14.01,2013-10-28 10:09:00,
2013-10-28 06:11:00,30.2,29.1,30.15,NNE,16,0.0,0.0,96,0.00,,,0.00,0.00,VWS V14.01,2013-10-28 10:11:00,
2013-10-28 06:14:00,29.8,28.6,30.16,NNE,16,0.0,0.0,95,0.00,,,0.00,0.00,VWS V14.01,2013-10-28 10:14:00,
2013-10-28 06:16:00,29.7,28.5,30.16,NNE,16,0.0,0.0,95,0.00,,,0.00,0.00,VWS V14.01,2013-10-28 10:16:00,
2013-10-28 06:17:00,29.6,28.4,30.16,NNE,16,0.0,0.0,95,0.00,,,0.00,0.00,VWS V14.01,2013-10-28 10:17:00,
2013-10-28 06:18:00,29.2,28.1,30.16,NNE,16,0.0,0.0,95,0.00,,,0.00,0.00,VWS V14.01,2013-10-28 10:18:00,
2013-10-28 06:20:00,29.4,28.2,30.16,NNE,16,0.0,0.0,96,0.00,,,0.00,0.00,VWS V14.01,2013-10-28 10:20:00,
2013-10-28 06:22:00,29.5,28.5,30.16,NNE,16,0.0,0.0,96,0.00,,,0.00,0.00,VWS V14.01,2013-10-28 10:22:00,
2013-10-28 06:23:00,29.6,28.6,30.17,NNE,16,0.0,0.0,96,0.00,,,0.00,0.00,VWS V14.01,2013-10-28 10:23:00,
2013-10-28 06:24:00,29.6,28.5,30.16,NNE,16,0.0,0.0,96,0.00,,,0.00,0.06,VWS V14.01,2013-10-28 10:24:00,
2013-10-28 06:26:00,29.9,28.8,30.16,NNE,16,0.0,0.0,96,0.00,,,0.00,0.00,VWS V14.01,2013-10-28 10:26:00,
2013-10-28 06:27:00,29.0,27.9,30.16,NNE,16,0.0,0.0,96,0.00,,,0.00,0.43,VWS V14.01,2013-10-28 10:27:00,
2013-10-28 06:29:00,28.1,26.7,30.16,NNE,16,0.0,0.0,94,0.00,,,0.00,0.00,VWS V14.01,2013-10-28 10:29:00,
2013-10-28 06:31:00,28.3,26.8,30.16,NNE,16,0.0,0.0,94,0.00,,,0.00,0.00,VWS V14.01,2013-10-28 10:31:00,
2013-10-28 06:32:00,27.8,26.5,30.16,NNE,16,0.0,0.0,95,0.00,,,0.00,0.00,VWS V14.01,2013-10-28 10:32:00,
2013-10-28 06:34:00,27.2,26.0,30.17,NNE,16,0.0,0.0,95,0.00,,,0.00,0.00,VWS V14.01,2013-10-28 10:34:00,
2013-10-28 06:37:00,27.4,26.2,30.17,NNE,16,0.0,0.0,95,0.00,,,0.00,0.00,VWS V14.01,2013-10-28 10:37:00,
2013-10-28 06:40:00,27.2,26.3,30.17,NNE,16,0.0,0.0,96,0.00,,,0.00,0.00,VWS V14.01,2013-10-28 10:40:00,
2013-10-28 06:42:00,27.1,26.3,30.17,NNE,16,0.0,0.0,96,0.00,,,0.00,0.00,VWS V14.01,2013-10-28 10:42:00,
2013-10-28 06:43:00,27.5,26.7,30.17,NNE,16,0.0,0.0,97,0.00,,,0.00,0.00,VWS V14.01,2013-10-28 10:43:00,
2013-10-28 06:47:00,27.8,27.2,30.17,NNE,16,0.0,0.0,97,0.00,,,0.00,0.00,VWS V14.01,2013-10-28 10:47:00,
2013-10-28 06:48:00,27.8,27.3,30.17,NNE,16,0.0,0.0,98,0.00,,,0.00,0.00,VWS V14.01,2013-10-28 10:48:00,
2013-10-28 06:49:00,28.0,27.6,30.17,NNE,16,0.0,0.0,98,0.00,,,0.00,0.00,VWS V14.01,2013-10-28 10:49:00,
2013-10-28 06:52:00,28.0,27.9,30.17,NNE,16,0.0,0.0,100,0.00,,,0.00,0.00,VWS V14.01,2013-10-28 10:52:00,
2013-10-28 06:53:00,28.0,27.9,30.17,NNE,16,0.0,0.0,100,0.00,,,0.00,0.00,VWS V14.01,2013-10-28 10:53:00,
2013-10-28 06:55:00,28.3,28.3,30.17,NNE,16,0.0,0.0,100,0.00,,,0.00,0.43,VWS V14.01,2013-10-28 10:55:00,
2013-10-28 06:57:00,28.9,28.9,30.17,NNE,16,0.0,0.0,100,0.00,,,0.00,0.00,VWS V14.01,2013-10-28 10:57:00,
2013-10-28 06:58:00,28.8,28.8,30.18,NNE,16,0.0,0.0,100,0.00,,,0.00,0.12,VWS V14.01,2013-10-28 10:58:00,
2013-10-28 06:59:00,28.9,28.9,30.17,NNE,16,0.0,0.0,100,0.00,,,0.00,0.73,VWS V14.01,2013-10-28 10:59:00,
2013-10-28 07:01:00,28.3,28.3,30.17,NNE,16,0.0,0.0,100,0.00,,,0.00,0.00,VWS V14.01,2013-10-28 11:01:00,
2013-10-28 07:02:00,28.4,28.4,30.17,NNE,16,0.0,0.0,100,0.00,,,0.00,0.73,VWS V14.01,2013-10-28 11:02:00,
2013-10-28 07:03:00,28.5,28.5,30.17,NNE,16,0.0,0.0,100,0.00,,,0.00,0.00,VWS V14.01,2013-10-28 11:03:00,
2013-10-28 07:04:00,28.6,28.6,30.19,NNE,16,0.0,0.0,100,0.00,,,0.00,0.00,VWS V14.01,2013-10-28 11:04:00,
2013-10-28 07:06:00,28.8,28.8,30.18,NNE,13,0.0,0.0,100,0.00,,,0.00,0.00,VWS V14.01,2013-10-28 11:06:00,
2013-10-28 07:08:00,28.9,28.9,30.17,NNE,13,0.0,0.0,100,0.00,,,0.00,0.00,VWS V14.01,2013-10-28 11:08:00,
2013-10-28 07:09:00,29.0,29.0,30.17,NNE,13,0.0,0.0,100,0.00,,,0.00,0.00,VWS V14.01,2013-10-28 11:09:00,
2013-10-28 07:11:00,29.0,29.0,30.18,NNE,13,0.0,0.0,100,0.00,,,0.00,0.00,VWS V14.01,2013-10-28 11:11:00,
2013-10-28 07:12:00,28.5,28.5,30.17,NNE,13,0.0,0.0,100,0.00,,,0.00,0.00,VWS V14.01,2013-10-28 11:12:00,
2013-10-28 07:14:00,28.7,28.7,30.18,WNW,290,0.0,0.0,100,0.00,,,0.00,0.00,VWS V14.01,2013-10-28 11:14:00,
2013-10-28 07:16:00,28.7,28.7,30.23,West,267,0.0,0.0,100,0.00,,,0.00,0.00,VWS V14.01,2013-10-28 11:16:00,
2013-10-28 07:17:00,28.6,28.6,30.18,West,267,1.6,1.6,100,0.00,,,0.00,0.00,VWS V14.01,2013-10-28 11:17:00,
2013-10-28 07:18:00,28.7,28.7,30.18,West,267,0.0,1.6,100,0.00,,,0.00,0.00,VWS V14.01,2013-10-28 11:18:00,
2013-10-28 07:21:00,28.9,28.9,30.18,West,267,0.0,0.0,100,0.00,,,0.00,0.00,VWS V14.01,2013-10-28 11:21:00,
2013-10-28 07:22:00,28.6,28.6,30.18,West,267,0.0,0.0,100,0.00,,,0.00,0.00,VWS V14.01,2013-10-28 11:22:00,
2013-10-28 07:23:00,28.2,28.2,30.18,West,267,0.0,0.0,100,0.00,,,0.00,0.00,VWS V14.01,2013-10-28 11:23:00,
2013-10-28 07:26:00,28.9,28.8,30.19,West,267,0.0,0.0,100,0.00,,,0.00,0.00,VWS V14.01,2013-10-28 11:26:00,
2013-10-28 07:27:00,28.7,28.5,30.18,West,267,0.0,0.0,99,0.00,,,0.00,0.00,VWS V14.01,2013-10-28 11:27:00,
2013-10-28 07:28:00,28.8,28.6,30.18,West,267,0.0,0.0,99,0.00,,,0.00,0.12,VWS V14.01,2013-10-28 11:28:00,
2013-10-28 07:29:00,28.7,28.5,30.19,West,267,0.0,0.0,99,0.00,,,0.00,0.00,VWS V14.01,2013-10-28 11:29:00,
2013-10-28 07:30:00,29.0,28.8,30.19,West,267,0.0,0.0,99,0.00,,,0.00,0.00,VWS V14.01,2013-10-28 11:30:00,
2013-10-28 07:31:00,29.0,28.8,30.18,West,267,0.0,0.0,99,0.00,,,0.00,0.00,VWS V14.01,2013-10-28 11:31:00,
2013-10-28 07:33:00,28.9,28.6,30.18,West,267,0.0,0.0,99,0.00,,,0.00,0.00,VWS V14.01,2013-10-28 11:33:00,
2013-10-28 07:34:00,28.9,28.6,30.19,West,267,0.0,0.0,99,0.00,,,0.00,0.73,VWS V14.01,2013-10-28 11:34:00,
2013-10-28 07:38:00,29.0,28.5,30.19,West,267,0.0,0.0,98,0.00,,,0.00,0.00,VWS V14.01,2013-10-28 11:38:00,
2013-10-28 07:40:00,29.1,28.6,30.20,West,267,0.0,0.0,98,0.00,,,0.00,0.00,VWS V14.01,2013-10-28 11:40:00,
2013-10-28 07:42:00,29.1,28.6,30.19,West,267,0.0,0.0,98,0.00,,,0.00,0.00,VWS V14.01,2013-10-28 11:42:00,
2013-10-28 07:44:00,29.1,28.6,30.19,West,267,0.0,0.0,98,0.00,,,0.00,0.00,VWS V14.01,2013-10-28 11:44:00,
2013-10-28 07:45:00,29.0,28.5,30.20,West,267,0.0,0.0,98,0.00,,,0.00,0.00,VWS V14.01,2013-10-28 11:45:00,
2013-10-28 07:46:00,29.1,28.5,30.19,West,267,0.0,0.0,98,0.00,,,0.00,0.00,VWS V14.01,2013-10-28 11:46:00,
2013-10-28 07:48:00,29.2,28.6,30.20,West,267,0.0,0.0,98,0.00,,,0.00,0.00,VWS V14.01,2013-10-28 11:48:00,
2013-10-28 07:49:00,29.0,28.4,30.19,West,267,0.0,0.0,97,0.00,,,0.00,0.55,VWS V14.01,2013-10-28 11:49:00,
2013-10-28 07:51:00,29.0,28.3,30.20,West,267,0.0,0.0,97,0.00,,,0.00,0.31,VWS V14.01,2013-10-28 11:51:00,
2013-10-28 07:53:00,29.2,28.5,30.20,West,267,0.0,0.0,97,0.00,,,0.00,1.04,VWS V14.01,2013-10-28 11:53:00,
2013-10-28 07:57:00,29.5,28.7,30.20,West,267,0.0,0.0,97,0.00,,,0.00,2.26,VWS V14.01,2013-10-28 11:57:00,
2013-10-28 07:58:00,29.7,28.9,30.20,West,267,0.0,0.0,97,0.00,,,0.00,2.26,VWS V14.01,2013-10-28 11:58:00,
2013-10-28 07:59:00,29.7,28.9,30.20,West,267,0.0,0.0,97,0.00,,,0.00,1.95,VWS V14.01,2013-10-28 11:59:00,
2013-10-28 08:02:00,29.7,28.8,30.20,West,267,0.0,0.0,96,0.00,,,0.00,4.70,VWS V14.01,2013-10-28 12:02:00,
2013-10-28 08:03:00,29.7,28.7,30.20,West,267,0.0,0.0,96,0.00,,,0.00,4.70,VWS V14.01,2013-10-28 12:03:00,
2013-10-28 08:04:00,29.8,28.7,30.19,West,267,0.0,0.0,96,0.00,,,0.00,5.01,VWS V14.01,2013-10-28 12:04:00,
2013-10-28 08:05:00,29.5,28.4,30.21,West,267,0.0,0.0,95,0.00,,,0.00,4.40,VWS V14.01,2013-10-28 12:05:00,
2013-10-28 08:07:00,29.8,28.4,30.20,West,267,0.0,0.0,95,0.00,,,0.00,4.40,VWS V14.01,2013-10-28 12:07:00,
2013-10-28 08:10:00,29.7,28.3,30.20,West,267,0.0,0.0,94,0.00,,,0.00,6.59,VWS V14.01,2013-10-28 12:10:00,
2013-10-28 08:11:00,29.6,28.1,30.20,West,267,0.0,0.0,94,0.00,,,0.00,7.14,VWS V14.01,2013-10-28 12:11:00,
2013-10-28 08:12:00,29.7,28.1,30.21,West,267,0.0,0.0,94,0.00,,,0.00,9.58,VWS V14.01,2013-10-28 12:12:00,
2013-10-28 08:13:00,30.1,28.4,30.22,West,267,0.0,0.0,93,0.00,,,0.00,11.11,VWS V14.01,2013-10-28 12:13:00,
2013-10-28 08:14:00,30.2,28.5,30.21,West,267,0.0,0.0,93,0.00,,,0.00,12.64,VWS V14.01,2013-10-28 12:14:00,
2013-10-28 08:15:00,30.3,28.6,30.20,West,267,0.0,0.0,93,0.00,,,0.00,14.22,VWS V14.01,2013-10-28 12:15:00,
2013-10-28 08:16:00,30.5,28.8,30.20,West,267,0.0,0.0,93,0.00,,,0.00,14.71,VWS V14.01,2013-10-28 12:16:00,
2013-10-28 08:19:00,30.6,28.5,30.20,West,267,0.0,0.0,92,0.00,,,0.00,17.64,VWS V14.01,2013-10-28 12:19:00,
2013-10-28 08:20:00,30.6,28.3,30.20,West,267,0.0,0.0,91,0.00,,,0.00,17.83,VWS V14.01,2013-10-28 12:20:00,
2013-10-28 08:22:00,30.5,28.0,30.22,West,267,0.0,0.0,90,0.00,,,0.00,16.42,VWS V14.01,2013-10-28 12:22:00,
2013-10-28 08:23:00,30.7,28.0,30.22,West,267,0.0,0.0,90,0.00,,,0.00,17.83,VWS V14.01,2013-10-28 12:23:00,
2013-10-28 08:24:00,30.6,28.0,30.21,West,267,0.0,0.0,90,0.00,,,0.00,18.38,VWS V14.01,2013-10-28 12:24:00,
2013-10-28 08:27:00,30.5,27.7,30.21,West,267,0.0,0.0,89,0.00,,,0.00,13.55,VWS V14.01,2013-10-28 12:27:00,
2013-10-28 08:28:00,30.5,27.8,30.21,West,267,0.0,0.0,89,0.00,,,0.00,14.96,VWS V14.01,2013-10-28 12:28:00,
2013-10-28 08:32:00,30.8,28.3,30.21,NW,307,0.0,0.0,90,0.00,,,0.00,13.86,VWS V14.01,2013-10-28 12:32:00,
2013-10-28 08:33:00,31.1,28.6,30.23,NW,307,0.0,0.0,90,0.00,,,0.00,19.47,VWS V14.01,2013-10-28 12:33:00,
2013-10-28 08:34:00,31.1,28.6,30.22,NW,307,0.0,0.0,90,0.00,,,0.00,18.74,VWS V14.01,2013-10-28 12:34:00,
2013-10-28 08:37:00,31.4,28.8,30.22,NW,307,0.0,0.0,90,0.00,,,0.00,24.54,VWS V14.01,2013-10-28 12:37:00,
2013-10-28 08:38:00,31.8,29.1,30.22,NW,307,0.0,0.0,90,0.00,,,0.00,23.93,VWS V14.01,2013-10-28 12:38:00,
2013-10-28 08:39:00,31.8,29.1,30.22,NW,307,0.0,0.0,90,0.00,,,0.00,23.93,VWS V14.01,2013-10-28 12:39:00,
2013-10-28 08:40:00,31.7,28.8,30.22,NW,311,0.0,1.0,89,0.00,,,0.00,31.26,VWS V14.01,2013-10-28 12:40:00,
2013-10-28 08:42:00,31.7,28.7,30.22,North,349,0.0,0.0,88,0.00,,,0.00,26.37,VWS V14.01,2013-10-28 12:42:00,
2013-10-28 08:44:00,31.0,28.1,30.23,NNE,27,0.0,0.0,89,0.00,,,0.00,31.56,VWS V14.01,2013-10-28 12:44:00,
2013-10-28 08:45:00,31.1,28.3,30.22,NNE,27,0.0,0.0,89,0.00,,,0.00,34.62,VWS V14.01,2013-10-28 12:45:00,
2013-10-28 08:47:00,31.7,29.1,30.21,NNE,27,0.0,0.0,90,0.00,,,0.00,34.00,VWS V14.01,2013-10-28 12:47:00,
2013-10-28 08:48:00,31.1,28.6,30.21,NE,54,3.4,3.4,90,0.00,,,0.00,36.87,VWS V14.01,2013-10-28 12:48:00,
2013-10-28 08:50:00,31.4,28.9,30.22,NE,41,0.0,2.5,90,0.00,,,0.00,38.89,VWS V14.01,2013-10-28 12:50:00,
2013-10-28 08:51:00,32.2,29.7,30.23,WSW,240,0.0,0.0,90,0.00,,,0.00,38.89,VWS V14.01,2013-10-28 12:51:00,
2013-10-28 08:52:00,31.3,28.8,30.22,ENE,74,3.2,3.2,90,0.00,,,0.00,40.05,VWS V14.01,2013-10-28 12:52:00,
2013-10-28 08:54:00,31.9,29.7,30.22,South,189,0.0,0.0,92,0.00,,,0.00,53.54,VWS V14.01,2013-10-28 12:54:00,
2013-10-28 08:57:00,32.6,30.5,30.22,South,189,0.0,0.0,92,0.00,,,0.00,57.20,VWS V14.01,2013-10-28 12:57:00,
2013-10-28 08:58:00,32.0,29.9,30.22,South,189,0.0,0.0,92,0.00,,,0.00,55.98,VWS V14.01,2013-10-28 12:58:00,
2013-10-28 08:59:00,31.8,29.6,30.23,South,189,0.0,0.0,91,0.00,,,0.00,66.36,VWS V14.01,2013-10-28 12:59:00,
2013-10-28 09:02:00,32.3,29.9,30.23,South,189,0.0,0.0,91,0.00,,,0.00,56.23,VWS V14.01,2013-10-28 13:02:00,
2013-10-28 09:03:00,32.8,30.4,30.22,South,189,0.0,0.0,91,0.00,,,0.00,54.03,VWS V14.01,2013-10-28 13:03:00,
2013-10-28 09:04:00,32.1,29.7,30.22,South,189,0.0,0.0,91,0.00,,,0.00,53.54,VWS V14.01,2013-10-28 13:04:00,
2013-10-28 09:08:00,33.5,29.9,30.22,South,189,0.0,0.0,87,0.00,,,0.00,58.42,VWS V14.01,2013-10-28 13:08:00,
2013-10-28 09:09:00,32.6,29.3,30.22,South,189,0.0,0.0,88,0.00,,,0.00,63.31,VWS V14.01,2013-10-28 13:09:00,
2013-10-28 09:10:00,32.5,29.2,30.22,South,189,0.0,0.0,87,0.00,,,0.00,65.75,VWS V14.01,2013-10-28 13:10:00,
2013-10-28 09:13:00,34.4,31.3,30.23,South,189,0.0,0.0,89,0.00,,,0.00,99.63,VWS V14.01,2013-10-28 13:13:00,
2013-10-28 09:14:00,33.1,29.4,30.22,South,189,0.0,0.0,86,0.00,,,0.00,119.47,VWS V14.01,2013-10-28 13:14:00,
2013-10-28 09:15:00,33.6,29.1,30.22,South,189,0.0,0.0,83,0.00,,,0.00,121.92,VWS V14.01,2013-10-28 13:15:00,
2013-10-28 09:17:00,34.0,28.7,30.23,South,189,0.0,0.0,81,0.00,,,0.00,138.77,VWS V14.01,2013-10-28 13:17:00,
2013-10-28 09:20:00,34.2,28.3,30.23,South,189,0.0,0.0,79,0.00,,,0.00,113.68,VWS V14.01,2013-10-28 13:20:00,
2013-10-28 09:21:00,34.7,28.4,30.23,South,189,0.0,0.0,77,0.00,,,0.00,153.91,VWS V14.01,2013-10-28 13:21:00,
2013-10-28 09:22:00,35.4,29.1,30.24,South,189,0.0,0.0,77,0.00,,,0.00,78.02,VWS V14.01,2013-10-28 13:22:00,
2013-10-28 09:26:00,35.0,28.1,30.23,South,189,0.0,0.0,76,0.00,,,0.00,80.10,VWS V14.01,2013-10-28 13:26:00,
2013-10-28 09:27:00,34.7,27.7,30.23,South,189,0.0,0.0,75,0.00,,,0.00,70.88,VWS V14.01,2013-10-28 13:27:00,
2013-10-28 09:28:00,34.8,28.1,30.23,South,189,0.0,0.0,76,0.00,,,0.00,85.53,VWS V14.01,2013-10-28 13:28:00,
2013-10-28 09:32:00,35.3,29.2,30.23,South,189,0.0,0.0,78,0.00,,,0.00,119.78,VWS V14.01,2013-10-28 13:32:00,
2013-10-28 09:33:00,35.3,29.2,30.23,South,189,0.0,0.0,78,0.00,,,0.00,119.78,VWS V14.01,2013-10-28 13:33:00,
2013-10-28 09:34:00,35.2,29.0,30.23,South,189,0.0,0.0,78,0.00,,,0.00,87.18,VWS V14.01,2013-10-28 13:34:00,
2013-10-28 09:35:00,35.3,28.9,30.23,South,189,0.0,0.0,77,0.00,,,0.00,90.78,VWS V14.01,2013-10-28 13:35:00,
2013-10-28 09:38:00,39.2,33.9,30.22,NW,322,0.0,0.0,81,0.00,,,0.00,173.81,VWS V14.01,2013-10-28 13:38:00,
2013-10-28 09:40:00,40.9,32.3,30.22,NW,322,0.0,0.0,71,0.00,,,0.00,143.90,VWS V14.01,2013-10-28 13:40:00,
2013-10-28 09:41:00,39.2,28.9,30.23,NW,322,0.0,0.0,66,0.00,,,0.00,82.36,VWS V14.01,2013-10-28 13:41:00,
2013-10-28 09:42:00,37.2,25.8,30.22,NW,322,0.0,0.0,63,0.00,,,0.00,103.30,VWS V14.01,2013-10-28 13:42:00,
2013-10-28 09:43:00,37.1,26.1,30.24,NW,322,0.0,0.0,64,0.00,,,0.00,113.06,VWS V14.01,2013-10-28 13:43:00,
2013-10-28 09:44:00,37.5,26.9,30.23,NW,322,0.0,0.0,65,0.00,,,0.00,121.92,VWS V14.01,2013-10-28 13:44:00,
2013-10-28 09:45:00,41.3,31.4,30.23,NW,322,0.0,0.0,68,0.00,,,0.00,168.50,VWS V14.01,2013-10-28 13:45:00,
2013-10-28 09:47:00,39.5,28.8,30.23,NW,322,0.0,0.0,65,0.00,,,0.00,107.39,VWS V14.01,2013-10-28 13:47:00,
2013-10-28 09:48:00,38.5,27.1,30.23,NW,322,0.0,0.0,63,0.00,,,0.00,199.08,VWS V14.01,2013-10-28 13:48:00,
2013-10-28 09:51:00,38.7,28.0,30.23,NW,326,0.0,0.0,65,0.00,,,0.00,181.38,VWS V14.01,2013-10-28 13:51:00,
2013-10-28 09:53:00,38.9,27.4,30.23,West,277,0.0,0.0,63,0.00,,,0.00,263.25,VWS V14.01,2013-10-28 13:53:00,
2013-10-28 09:54:00,38.7,27.4,30.22,West,277,0.0,0.0,63,0.00,,,0.00,275.76,VWS V14.01,2013-10-28 13:54:00,
2013-10-28 09:57:00,39.8,26.1,30.24,West,280,0.0,1.6,58,0.00,,,0.00,295.91,VWS V14.01,2013-10-28 13:57:00,
2013-10-28 09:58:00,40.2,26.0,30.24,NNW,327,0.0,0.0,57,0.00,,,0.00,307.08,VWS V14.01,2013-10-28 13:58:00,
2013-10-28 09:59:00,39.6,23.9,30.24,West,268,0.0,0.0,53,0.00,,,0.00,317.28,VWS V14.01,2013-10-28 13:59:00,
2013-10-28 10:00:00,40.8,26.7,30.24,NW,312,1.5,2.5,57,0.00,,,0.00,319.41,VWS V14.01,2013-10-28 14:00:00,
2013-10-28 10:02:00,42.2,27.9,30.23,NW,312,0.0,2.0,57,0.00,,,0.00,325.03,VWS V14.01,2013-10-28 14:02:00,
2013-10-28 10:03:00,41.7,26.1,30.23,NW,320,1.6,1.6,54,0.00,,,0.00,335.35,VWS V14.01,2013-10-28 14:03:00,
2013-10-28 10:04:00,42.2,26.3,30.23,NW,321,2.0,2.0,53,0.00,,,0.00,331.93,VWS V14.01,2013-10-28 14:04:00,
2013-10-28 10:05:00,43.0,27.7,30.23,NNW,346,1.3,2.2,54,0.00,,,0.00,325.95,VWS V14.01,2013-10-28 14:05:00,
2013-10-28 10:07:00,42.2,25.5,30.23,NE,36,2.3,2.5,51,0.00,,,0.00,151.22,VWS V14.01,2013-10-28 14:07:00,
2013-10-28 10:08:00,42.2,25.5,30.23,NE,36,2.3,2.5,51,0.00,,,0.00,151.22,VWS V14.01,2013-10-28 14:08:00,
2013-10-28 10:09:00,42.3,26.5,30.23,North,351,1.8,2.7,53,0.00,,,0.00,146.34,VWS V14.01,2013-10-28 14:09:00,
2013-10-28 10:10:00,41.3,25.0,30.23,NNE,28,2.8,2.8,52,0.00,,,0.00,146.34,VWS V14.01,2013-10-28 14:10:00,
2013-10-28 10:11:00,41.7,25.4,30.22,North,10,2.2,2.2,52,0.00,,,0.00,143.90,VWS V14.01,2013-10-28 14:11:00,
2013-10-28 10:13:00,41.8,26.2,30.23,NNW,347,0.0,0.0,54,0.00,,,0.00,141.15,VWS V14.01,2013-10-28 14:13:00,
2013-10-28 10:14:00,42.3,27.9,30.24,NNE,15,0.0,2.0,56,0.00,,,0.00,143.28,VWS V14.01,2013-10-28 14:14:00,
2013-10-28 10:15:00,42.5,27.8,30.23,NNE,15,0.0,2.0,56,0.00,,,0.00,144.87,VWS V14.01,2013-10-28 14:15:00,
2013-10-28 10:16:00,41.9,27.1,30.23,NNE,15,0.0,0.0,56,0.00,,,0.00,146.03,VWS V14.01,2013-10-28 14:16:00,
2013-10-28 10:18:00,42.4,27.4,30.22,NE,43,1.1,1.1,55,0.00,,,0.00,141.70,VWS V14.01,2013-10-28 14:18:00,
2013-10-28 10:19:00,42.2,26.8,30.23,NE,35,2.7,2.7,54,0.00,,,0.00,139.01,VWS V14.01,2013-10-28 14:19:00,
2013-10-28 10:20:00,42.2,26.4,30.26,NE,35,0.0,2.7,53,0.00,,,0.00,139.93,VWS V14.01,2013-10-28 14:20:00,
2013-10-28 10:21:00,41.8,25.2,30.23,NE,36,2.8,2.8,51,0.00,,,0.00,139.01,VWS V14.01,2013-10-28 14:21:00,
2013-10-28 10:22:00,42.2,25.5,30.23,North,2,3.4,3.4,51,0.00,,,0.00,137.06,VWS V14.01,2013-10-28 14:22:00,
2013-10-28 10:24:00,41.8,25.0,30.23,NNE,23,3.5,3.5,51,0.00,,,0.00,136.57,VWS V14.01,2013-10-28 14:24:00,
2013-10-28 10:25:00,41.8,25.0,30.23,NNE,23,3.5,3.5,51,0.00,,,0.00,136.57,VWS V14.01,2013-10-28 14:25:00,
2013-10-28 10:26:00,42.0,25.7,30.23,NNE,32,2.0,3.0,52,0.00,,,0.00,137.79,VWS V14.01,2013-10-28 14:26:00,
2013-10-28 10:27:00,42.3,25.7,30.23,NNE,26,2.5,2.5,51,0.00,,,0.00,140.11,VWS V14.01,2013-10-28 14:27:00,
2013-10-28 10:29:00,41.8,25.1,30.23,NE,34,3.7,3.9,51,0.00,,,0.00,143.41,VWS V14.01,2013-10-28 14:29:00,
2013-10-28 10:30:00,42.4,25.9,30.23,North,360,3.0,3.0,52,0.00,,,0.00,146.76,VWS V14.01,2013-10-28 14:30:00,
2013-10-28 10:31:00,42.2,25.2,30.23,North,6,3.7,3.7,51,0.00,,,0.00,148.78,VWS V14.01,2013-10-28 14:31:00,
2013-10-28 10:34:00,42.1,25.8,30.24,North,352,4.7,4.7,52,0.00,,,0.00,151.22,VWS V14.01,2013-10-28 14:34:00,
2013-10-28 10:35:00,42.0,25.9,30.24,NE,46,3.2,4.7,53,0.00,,,0.00,151.95,VWS V14.01,2013-10-28 14:35:00,
2013-10-28 10:36:00,42.7,27.1,30.24,NNE,18,1.0,1.0,54,0.00,,,0.00,153.66,VWS V14.01,2013-10-28 14:36:00,
2013-10-28 10:38:00,43.1,27.7,30.24,NE,36,0.0,2.7,54,0.00,,,0.00,156.47,VWS V14.01,2013-10-28 14:38:00,
2013-10-28 10:39:00,42.2,26.6,30.24,NE,34,3.0,3.0,53,0.00,,,0.00,157.14,VWS V14.01,2013-10-28 14:39:00,
2013-10-28 10:40:00,43.0,27.4,30.24,North,0,2.0,2.0,54,0.00,,,0.00,151.83,VWS V14.01,2013-10-28 14:40:00,
2013-10-28 10:41:00,42.9,26.9,30.24,NNE,13,1.0,2.0,53,0.00,,,0.00,152.44,VWS V14.01,2013-10-28 14:41:00,
2013-10-28 10:43:00,43.0,26.6,30.24,NNE,29,3.4,4.2,52,0.00,,,0.00,158.24,VWS V14.01,2013-10-28 14:43:00,
2013-10-28 10:46:00,43.1,26.9,30.23,NE,35,3.5,3.5,52,0.00,,,0.00,141.45,VWS V14.01,2013-10-28 14:46:00,
2013-10-28 10:47:00,43.6,28.1,30.24,NNE,23,3.5,3.5,54,0.00,,,0.00,143.90,VWS V14.01,2013-10-28 14:47:00,
2013-10-28 10:48:00,43.4,27.4,30.23,NNE,17,3.4,4.0,53,0.00,,,0.00,161.23,VWS V14.01,2013-10-28 14:48:00,
2013-10-28 10:49:00,44.2,27.5,30.24,NE,39,3.5,4.7,52,0.00,,,0.00,207.14,VWS V14.01,2013-10-28 14:49:00,
2013-10-28 10:52:00,45.1,28.2,30.24,ENE,57,4.0,4.0,51,0.00,,,0.00,172.04,VWS V14.01,2013-10-28 14:52:00,
2013-10-28 10:53:00,44.0,26.6,30.24,NE,39,7.3,7.3,50,0.00,,,0.00,195.42,VWS V14.01,2013-10-28 14:53:00,
2013-10-28 10:54:00,44.1,26.6,30.24,NE,34,4.2,7.3,50,0.00,,,0.00,215.02,VWS V14.01,2013-10-28 14:54:00,
2013-10-28 10:55:00,45.4,28.6,30.24,NE,43,4.5,4.5,52,0.00,,,0.00,409.83,VWS V14.01,2013-10-28 14:55:00,
2013-10-28 10:57:00,44.3,26.3,30.24,NNE,15,6.3,6.3,49,0.00,,,0.00,181.81,VWS V14.01,2013-10-28 14:57:00,
2013-10-28 10:58:00,44.3,26.3,30.24,NNE,15,6.3,6.3,49,0.00,,,0.00,181.81,VWS V14.01,2013-10-28 14:58:00,
2013-10-28 10:59:00,44.6,26.5,30.23,NNE,31,6.8,6.8,49,0.00,,,0.00,186.02,VWS V14.01,2013-10-28 14:59:00,
2013-10-28 11:00:00,44.5,27.0,30.23,NE,39,5.1,6.8,50,0.00,,,0.00,197.62,VWS V14.01,2013-10-28 15:00:00,
2013-10-28 11:02:00,44.8,25.7,30.23,ENE,62,6.8,6.8,47,0.00,,,0.00,180.22,VWS V14.01,2013-10-28 15:02:00,
2013-10-28 11:03:00,44.9,26.7,30.24,ENE,73,5.6,6.8,49,0.00,,,0.00,188.10,VWS V14.01,2013-10-28 15:03:00,
2013-10-28 11:04:00,44.8,26.3,30.24,ENE,69,6.6,6.6,48,0.00,,,0.00,190.05,VWS V14.01,2013-10-28 15:04:00,
2013-10-28 11:05:00,45.1,22.5,30.23,SE,127,6.4,6.8,40,0.00,,,0.00,183.27,VWS V14.01,2013-10-28 15:05:00,
2013-10-28 11:07:00,45.6,27.2,30.23,ENE,63,4.2,5.6,48,0.00,,,0.00,212.27,VWS V14.01,2013-10-28 15:07:00,
2013-10-28 11:08:00,46.0,27.5,30.24,NE,53,4.2,6.1,48,0.00,,,0.00,182.97,VWS V14.01,2013-10-28 15:08:00,
2013-10-28 11:09:00,45.5,27.1,30.24,ENE,60,4.9,4.9,48,0.00,,,0.00,182.97,VWS V14.01,2013-10-28 15:09:00,
2013-10-28 11:10:00,45.7,27.0,30.24,NE,38,3.0,6.6,48,0.00,,,0.00,190.29,VWS V14.01,2013-10-28 15:10:00,
2013-10-28 11:12:00,45.7,26.9,30.24,East,86,5.6,5.6,47,0.00,,,0.00,185.10,VWS V14.01,2013-10-28 15:12:00,
2013-10-28 11:13:00,45.7,26.9,30.24,East,86,5.6,5.6,47,0.00,,,0.00,185.10,VWS V14.01,2013-10-28 15:13:00,
2013-10-28 11:14:00,46.2,27.5,30.23,ENE,67,5.4,5.4,48,0.00,,,0.00,225.21,VWS V14.01,2013-10-28 15:14:00,
2013-10-28 11:16:00,46.7,28.2,30.24,ENE,61,5.1,5.1,48,0.00,,,0.00,256.23,VWS V14.01,2013-10-28 15:16:00,
2013-10-28 11:17:00,45.8,26.5,30.24,East,95,7.6,7.6,47,0.00,,,0.00,253.79,VWS V14.01,2013-10-28 15:17:00,
2013-10-28 11:18:00,45.8,26.5,30.24,East,95,7.6,7.6,47,0.00,,,0.00,253.79,VWS V14.01,2013-10-28 15:18:00,
2013-10-28 11:19:00,45.7,25.8,30.22,East,81,8.0,8.3,45,0.00,,,0.00,275.52,VWS V14.01,2013-10-28 15:19:00,
2013-10-28 11:22:00,46.4,26.3,30.22,ENE,69,7.3,7.3,45,0.00,,,0.00,332.66,VWS V14.01,2013-10-28 15:22:00,
2013-10-28 11:23:00,46.9,26.8,30.23,East,93,6.3,7.3,45,0.00,,,0.00,253.79,VWS V14.01,2013-10-28 15:23:00,
2013-10-28 11:24:00,46.7,26.4,30.24,ENE,62,7.3,7.3,45,0.00,,,0.00,202.81,VWS V14.01,2013-10-28 15:24:00,
2013-10-28 11:25:00,46.8,27.0,30.23,ENE,57,7.3,7.3,46,0.00,,,0.00,187.06,VWS V14.01,2013-10-28 15:25:00,
2013-10-28 11:28:00,46.3,26.6,30.23,ENE,73,8.5,10.0,46,0.00,,,0.00,173.14,VWS V14.01,2013-10-28 15:28:00,
2013-10-28 11:29:00,45.6,25.6,30.23,ENE,78,10.0,10.0,45,0.00,,,0.00,251.34,VWS V14.01,2013-10-28 15:29:00,
2013-10-28 11:30:00,45.6,25.6,30.23,ENE,78,9.0,10.0,45,0.00,,,0.00,186.63,VWS V14.01,2013-10-28 15:30:00,
2013-10-28 11:34:00,45.7,26.1,30.24,ENE,59,9.2,9.5,46,0.00,,,0.00,246.46,VWS V14.01,2013-10-28 15:34:00,
2013-10-28 11:35:00,46.0,26.5,30.25,ENE,62,7.8,9.2,46,0.00,,,0.00,363.74,VWS V14.01,2013-10-28 15:35:00,
2013-10-28 11:36:00,46.1,26.1,30.24,ENE,77,10.4,10.4,45,0.00,,,0.00,439.01,VWS V14.01,2013-10-28 15:36:00,
2013-10-28 11:37:00,47.3,27.5,30.24,ENE,57,6.3,10.4,46,0.00,,,0.00,440.84,VWS V14.01,2013-10-28 15:37:00,
2013-10-28 11:39:00,47.1,26.0,30.24,ENE,74,6.9,6.9,43,0.00,,,0.00,437.24,VWS V14.01,2013-10-28 15:39:00,
2013-10-28 11:40:00,47.7,26.7,30.24,NE,53,6.3,6.3,44,0.00,,,0.00,436.94,VWS V14.01,2013-10-28 15:40:00,
2013-10-28 11:41:00,47.0,25.7,30.24,ENE,59,6.1,6.1,43,0.00,,,0.00,435.65,VWS V14.01,2013-10-28 15:41:00,
2013-10-28 11:42:00,46.5,24.8,30.24,ENE,70,6.8,6.8,42,0.00,,,0.00,435.10,VWS V14.01,2013-10-28 15:42:00,
2013-10-28 11:45:00,47.0,25.9,30.25,NE,47,6.6,6.6,43,0.00,,,0.00,427.17,VWS V14.01,2013-10-28 15:45:00,
2013-10-28 11:46:00,48.0,26.3,30.25,NNE,27,7.3,7.3,43,0.00,,,0.00,433.33,VWS V14.01,2013-10-28 15:46:00,
2013-10-28 11:47:00,46.7,24.4,30.24,ENE,74,9.3,9.3,41,0.00,,,0.00,437.42,VWS V14.01,2013-10-28 15:47:00,
2013-10-28 11:48:00,48.2,26.0,30.25,East,95,7.5,9.3,42,0.00,,,0.00,437.97,VWS V14.01,2013-10-28 15:48:00,
2013-10-28 11:49:00,47.3,25.0,30.25,East,84,5.7,6.9,41,0.00,,,0.00,436.94,VWS V14.01,2013-10-28 15:49:00,
2013-10-28 11:52:00,47.5,24.6,30.24,East,79,8.3,8.3,40,0.00,,,0.00,439.13,VWS V14.01,2013-10-28 15:52:00,
2013-10-28 11:53:00,47.9,25.2,30.24,East,83,6.3,6.3,41,0.00,,,0.00,441.82,VWS V14.01,2013-10-28 15:53:00,
2013-10-28 11:54:00,47.2,24.0,30.24,East,82,6.8,6.9,40,0.00,,,0.00,435.41,VWS V14.01,2013-10-28 15:54:00,
2013-10-28 11:55:00,48.6,25.9,30.28,East,80,5.6,6.8,41,0.00,,,0.00,225.34,VWS V14.01,2013-10-28 15:55:00,
2013-10-28 11:57:00,49.7,26.8,30.24,ENE,67,4.5,4.5,41,0.00,,,0.00,58.42,VWS V14.01,2013-10-28 15:57:00,
2013-10-28 11:58:00,50.4,27.2,30.24,ENE,60,4.5,4.5,40,0.00,,,0.00,59.04,VWS V14.01,2013-10-28 15:58:00,
2013-10-28 11:59:00,48.2,24.8,30.25,NNE,26,5.4,5.4,40,0.00,,,0.00,58.42,VWS V14.01,2013-10-28 15:59:00,
2013-10-28 12:00:00,48.4,24.3,30.25,NE,55,8.0,8.0,38,0.00,,,0.00,58.42,VWS V14.01,2013-10-28 16:00:00,
2013-10-28 12:03:00,49.2,25.3,30.25,ENE,71,4.2,5.6,39,0.00,,,0.00,58.42,VWS V14.01,2013-10-28 16:03:00,
2013-10-28 12:04:00,48.7,24.6,30.24,NE,39,6.3,6.3,39,0.00,,,0.00,56.96,VWS V14.01,2013-10-28 16:04:00,
2013-10-28 12:07:00,49.7,25.6,30.25,NE,38,8.7,8.7,39,0.00,,,0.00,56.72,VWS V14.01,2013-10-28 16:07:00,
2013-10-28 12:08:00,49.2,25.3,30.25,ENE,61,4.7,6.6,39,0.00,,,0.00,59.16,VWS V14.01,2013-10-28 16:08:00,
2013-10-28 12:09:00,49.2,25.3,30.25,ENE,61,4.7,6.6,39,0.00,,,0.00,59.16,VWS V14.01,2013-10-28 16:09:00,
2013-10-28 12:10:00,47.8,23.9,30.25,East,83,7.1,7.1,39,0.00,,,0.00,57.94,VWS V14.01,2013-10-28 16:10:00,
2013-10-28 12:13:00,51.0,26.8,30.23,ESE,110,4.5,4.5,39,0.00,,,0.00,402.99,VWS V14.01,2013-10-28 16:13:00,
2013-10-28 12:14:00,52.2,27.6,30.23,NE,56,6.1,6.1,38,0.00,,,0.00,463.80,VWS V14.01,2013-10-28 16:14:00,
2013-10-28 12:15:00,48.8,24.2,30.28,NE,55,7.6,7.6,38,0.00,,,0.00,465.93,VWS V14.01,2013-10-28 16:15:00,
2013-10-28 12:16:00,48.3,24.0,30.24,East,83,6.4,6.4,38,0.00,,,0.00,466.85,VWS V14.01,2013-10-28 16:16:00,
2013-10-28 12:17:00,48.3,24.0,30.24,East,83,6.4,6.4,38,0.00,,,0.00,466.85,VWS V14.01,2013-10-28 16:17:00,
2013-10-28 12:18:00,49.0,24.0,30.25,East,80,7.3,7.3,37,0.00,,,0.00,468.99,VWS V14.01,2013-10-28 16:18:00,
2013-10-28 12:19:00,50.8,26.4,30.25,ENE,62,7.6,7.6,38,0.00,,,0.00,471.43,VWS V14.01,2013-10-28 16:19:00,
2013-10-28 12:20:00,49.0,24.2,30.25,NE,55,5.4,7.6,38,0.00,,,0.00,469.35,VWS V14.01,2013-10-28 16:20:00,
2013-10-28 12:22:00,50.8,26.1,30.25,SE,139,3.9,7.8,38,0.00,,,0.00,473.57,VWS V14.01,2013-10-28 16:22:00,
2013-10-28 12:23:00,49.7,24.5,30.25,SE,128,3.9,4.0,37,0.00,,,0.00,474.05,VWS V14.01,2013-10-28 16:23:00,
2013-10-28 12:24:00,51.2,26.3,30.25,ENE,67,2.8,3.2,38,0.00,,,0.00,475.52,VWS V14.01,2013-10-28 16:24:00,
2013-10-28 12:26:00,52.8,27.4,30.24,ESE,119,8.5,8.5,37,0.00,,,0.00,475.95,VWS V14.01,2013-10-28 16:26:00,
2013-10-28 12:27:00,49.2,21.9,30.24,ESE,105,7.8,7.8,34,0.00,,,0.00,476.01,VWS V14.01,2013-10-28 16:27:00,
2013-10-28 12:28:00,49.0,23.6,30.25,East,82,3.9,6.6,37,0.00,,,0.00,477.23,VWS V14.01,2013-10-28 16:28:00,
2013-10-28 12:31:00,49.6,23.8,30.25,East,92,5.4,5.9,36,0.00,,,0.00,480.89,VWS V14.01,2013-10-28 16:31:00,
2013-10-28 12:32:00,49.6,23.8,30.24,ENE,60,7.1,7.1,36,0.00,,,0.00,479.43,VWS V14.01,2013-10-28 16:32:00,
2013-10-28 12:33:00,49.6,23.6,30.25,NE,53,7.5,7.5,36,0.00,,,0.00,473.26,VWS V14.01,2013-10-28 16:33:00,
2013-10-28 12:35:00,49.5,24.0,30.23,NE,43,6.3,6.3,36,0.00,,,0.00,439.50,VWS V14.01,2013-10-28 16:35:00,
2013-10-28 12:36:00,50.3,23.7,30.24,ENE,75,7.1,7.6,35,0.00,,,0.00,483.03,VWS V14.01,2013-10-28 16:36:00,
2013-10-28 12:38:00,48.6,21.6,30.24,ENE,72,7.6,7.6,34,0.00,,,0.00,485.23,VWS V14.01,2013-10-28 16:38:00,
2013-10-28 12:39:00,50.4,23.7,30.24,NE,45,4.9,5.6,35,0.00,,,0.00,485.47,VWS V14.01,2013-10-28 16:39:00,
2013-10-28 12:40:00,51.8,25.1,30.24,NNE,33,5.4,5.4,35,0.00,,,0.00,483.33,VWS V14.01,2013-10-28 16:40:00,
2013-10-28 12:43:00,50.1,23.4,30.24,NE,35,5.1,7.6,35,0.00,,,0.00,486.33,VWS V14.01,2013-10-28 16:43:00,
2013-10-28 12:44:00,50.4,23.6,30.25,NNE,31,5.6,5.6,35,0.00,,,0.00,479.67,VWS V14.01,2013-10-28 16:44:00,
2013-10-28 12:45:00,50.6,23.9,30.24,NE,52,5.6,7.8,35,0.00,,,0.00,424.30,VWS V14.01,2013-10-28 16:45:00,
2013-10-28 12:47:00,51.2,24.2,30.24,ENE,74,6.3,7.3,35,0.00,,,0.00,490.66,VWS V14.01,2013-10-28 16:47:00,
2013-10-28 12:49:00,51.9,23.9,30.23,ENE,66,4.5,8.5,33,0.00,,,0.00,493.10,VWS V14.01,2013-10-28 16:49:00,
2013-10-28 12:51:00,51.1,22.9,30.24,ENE,72,6.1,7.5,33,0.00,,,0.00,495.54,VWS V14.01,2013-10-28 16:51:00,
2013-10-28 12:52:00,52.2,24.4,30.24,ENE,77,4.4,6.1,33,0.00,,,0.00,494.32,VWS V14.01,2013-10-28 16:52:00,
2013-10-28 12:53:00,51.5,23.3,30.24,SE,128,3.0,7.5,33,0.00,,,0.00,493.10,VWS V14.01,2013-10-28 16:53:00,
2013-10-28 12:54:00,50.2,21.2,30.24,ESE,120,3.9,3.9,32,0.00,,,0.00,496.70,VWS V14.01,2013-10-28 16:54:00,
2013-10-28 12:56:00,52.9,24.3,30.24,ESE,109,3.2,3.2,33,0.00,,,0.00,496.58,VWS V14.01,2013-10-28 16:56:00,
2013-10-28 12:57:00,52.1,23.1,30.24,NE,43,7.6,7.6,32,0.00,,,0.00,495.79,VWS V14.01,2013-10-28 16:57:00,
2013-10-28 12:58:00,50.8,21.0,30.23,East,80,8.7,8.7,31,0.00,,,0.00,497.99,VWS V14.01,2013-10-28 16:58:00,
2013-10-28 12:59:00,50.1,20.9,30.23,East,99,6.8,6.8,31,0.00,,,0.00,446.70,VWS V14.01,2013-10-28 16:59:00,
2013-10-28 13:00:00,50.1,20.9,30.23,East,99,6.8,6.8,31,0.00,,,0.00,446.70,VWS V14.01,2013-10-28 17:00:00,
2013-10-28 13:02:00,51.9,23.2,30.23,ENE,70,2.5,5.2,32,0.00,,,0.00,499.45,VWS V14.01,2013-10-28 17:02:00,
2013-10-28 13:03:00,51.4,22.6,30.24,East,87,4.7,5.2,32,0.00,,,0.00,497.99,VWS V14.01,2013-10-28 17:03:00,
2013-10-28 13:05:00,50.9,22.2,30.24,ENE,60,7.8,7.8,32,0.00,,,0.00,497.99,VWS V14.01,2013-10-28 17:05:00,
2013-10-28 13:06:00,50.7,21.4,30.24,East,96,8.5,8.5,31,0.00,,,0.00,500.79,VWS V14.01,2013-10-28 17:06:00,
2013-10-28 13:08:00,51.0,21.0,30.24,East,96,4.2,8.5,30,0.00,,,0.00,501.04,VWS V14.01,2013-10-28 17:08:00,
2013-10-28 13:09:00,52.6,22.6,30.24,SE,125,4.0,8.5,31,0.00,,,0.00,500.67,VWS V14.01,2013-10-28 17:09:00,
2013-10-28 13:10:00,51.1,21.0,30.24,SE,127,4.4,8.5,30,0.00,,,0.00,499.94,VWS V14.01,2013-10-28 17:10:00,
2013-10-28 13:12:00,50.7,20.9,30.24,East,80,4.9,8.5,31,0.00,,,0.00,499.70,VWS V14.01,2013-10-28 17:12:00,
2013-10-28 13:13:00,52.0,22.6,30.23,East,94,4.9,8.5,31,0.00,,,0.00,500.43,VWS V14.01,2013-10-28 17:13:00,
2013-10-28 13:15:00,53.9,24.4,30.23,East,98,4.4,8.5,31,0.00,,,0.00,502.87,VWS V14.01,2013-10-28 17:15:00,
2013-10-28 13:16:00,52.3,22.2,30.24,ENE,74,6.9,8.5,31,0.00,,,0.00,502.87,VWS V14.01,2013-10-28 17:16:00,
2013-10-28 13:18:00,52.4,22.0,30.23,East,101,3.9,8.5,30,0.00,,,0.00,502.87,VWS V14.01,2013-10-28 17:18:00,
2013-10-28 13:19:00,52.5,22.3,30.23,ENE,61,5.6,8.5,30,0.00,,,0.00,502.87,VWS V14.01,2013-10-28 17:19:00,
2013-10-28 13:21:00,52.9,22.2,30.23,ENE,61,1.6,8.5,30,0.00,,,0.00,481.69,VWS V14.01,2013-10-28 17:21:00,
2013-10-28 13:22:00,52.8,22.2,30.24,SE,134,4.0,8.5,30,0.00,,,0.00,461.11,VWS V14.01,2013-10-28 17:22:00,
2013-10-28 13:23:00,52.8,22.2,30.24,SE,134,4.0,8.5,30,0.00,,,0.00,461.11,VWS V14.01,2013-10-28 17:23:00,
2013-10-28 13:24:00,51.4,20.5,30.23,NE,52,5.6,8.5,29,0.00,,,0.00,503.85,VWS V14.01,2013-10-28 17:24:00,
2013-10-28 13:26:00,52.7,21.7,30.24,East,93,5.2,8.5,29,0.00,,,0.00,494.32,VWS V14.01,2013-10-28 17:26:00,
2013-10-28 13:27:00,52.3,21.0,30.22,NE,56,3.5,8.5,29,0.00,,,0.00,478.45,VWS V14.01,2013-10-28 17:27:00,
2013-10-28 13:29:00,51.8,20.0,30.23,SE,142,7.3,8.5,28,0.00,,,0.00,505.31,VWS V14.01,2013-10-28 17:29:00,
2013-10-28 13:32:00,53.7,21.9,30.22,ESE,113,3.9,8.5,29,0.00,,,0.00,465.38,VWS V14.01,2013-10-28 17:32:00,
2013-10-28 13:33:00,51.3,20.1,30.22,SE,125,5.4,8.5,29,0.00,,,0.00,490.42,VWS V14.01,2013-10-28 17:33:00,
2013-10-28 13:34:00,53.8,23.2,30.23,SSW,196,3.2,8.5,30,0.00,,,0.00,507.75,VWS V14.01,2013-10-28 17:34:00,
2013-10-28 13:37:00,53.9,23.1,30.23,ESE,123,3.5,8.5,30,0.00,,,0.00,495.12,VWS V14.01,2013-10-28 17:37:00,
2013-10-28 13:38:00,52.0,20.6,30.23,East,83,6.4,8.5,29,0.00,,,0.00,502.81,VWS V14.01,2013-10-28 17:38:00,
2013-10-28 13:39:00,51.5,20.1,30.23,ENE,62,7.6,8.5,29,0.00,,,0.00,492.06,VWS V14.01,2013-10-28 17:39:00,
2013-10-28 13:40:00,51.1,20.1,30.23,NE,51,6.1,8.5,29,0.00,,,0.00,502.56,VWS V14.01,2013-10-28 17:40:00,
2013-10-28 13:41:00,55.6,25.0,30.23,South,173,1.8,8.5,30,0.00,,,0.00,461.66,VWS V14.01,2013-10-28 17:41:00,
2013-10-28 13:42:00,54.2,22.2,30.22,SE,136,5.1,8.5,28,0.00,,,0.00,500.43,VWS V14.01,2013-10-28 17:42:00,
2013-10-28 13:44:00,52.3,20.7,30.22,ESE,103,5.4,8.5,29,0.00,,,0.00,476.43,VWS V14.01,2013-10-28 17:44:00,
2013-10-28 13:45:00,52.7,20.6,30.21,SE,124,6.8,8.5,28,0.00,,,0.00,502.87,VWS V14.01,2013-10-28 17:45:00,
2013-10-28 13:46:00,53.2,20.4,30.21,SSE,151,5.2,8.5,27,0.00,,,0.00,483.33,VWS V14.01,2013-10-28 17:46:00,
2013-10-28 13:47:00,53.5,20.9,30.25,SE,127,5.9,8.5,28,0.00,,,0.00,493.10,VWS V14.01,2013-10-28 17:47:00,
2013-10-28 13:50:00,52.4,18.7,30.23,SE,133,3.7,8.5,26,0.00,,,0.00,490.90,VWS V14.01,2013-10-28 17:50:00,
2013-10-28 13:51:00,52.9,19.4,30.22,ENE,70,2.2,8.5,27,0.00,,,0.00,497.99,VWS V14.01,2013-10-28 17:51:00,
2013-10-28 13:52:00,53.2,19.6,30.22,East,88,5.6,8.5,26,0.00,,,0.00,498.60,VWS V14.01,2013-10-28 17:52:00,
2013-10-28 13:54:00,53.6,20.6,30.22,ENE,60,1.3,8.5,27,0.00,,,0.00,490.66,VWS V14.01,2013-10-28 17:54:00,
2013-10-28 13:55:00,54.2,20.5,30.22,ESE,106,5.4,8.5,27,0.00,,,0.00,490.11,VWS V14.01,2013-10-28 17:55:00,
2013-10-28 13:56:00,55.2,21.6,30.23,SE,146,5.6,8.5,27,0.00,,,0.00,495.24,VWS V14.01,2013-10-28 17:56:00,
2013-10-28 13:58:00,53.4,20.0,30.22,SE,144,5.2,8.5,27,0.00,,,0.00,501.04,VWS V14.01,2013-10-28 17:58:00,
2013-10-28 14:00:00,52.3,17.6,30.22,ESE,112,5.7,8.5,25,0.00,,,0.00,488.46,VWS V14.01,2013-10-28 18:00:00,
2013-10-28 14:01:00,52.3,18.6,30.22,ENE,65,4.7,8.5,26,0.00,,,0.00,479.43,VWS V14.01,2013-10-28 18:01:00,
2013-10-28 14:02:00,54.3,20.3,30.22,SE,143,5.1,8.5,26,0.00,,,0.00,458.91,VWS V14.01,2013-10-28 18:02:00,
2013-10-28 14:04:00,54.1,21.0,30.22,SE,140,3.2,4.2,27,0.00,,,0.00,442.06,VWS V14.01,2013-10-28 18:04:00,
2013-10-28 14:05:00,53.8,19.6,30.22,SE,146,5.2,5.2,26,0.00,,,0.00,466.24,VWS V14.01,2013-10-28 18:05:00,
2013-10-28 14:06:00,53.0,18.1,30.22,SSE,147,4.4,4.4,25,0.00,,,0.00,465.93,VWS V14.01,2013-10-28 18:06:00,
2013-10-28 14:07:00,54.2,19.6,30.21,SSE,167,1.1,4.4,26,0.00,,,0.00,436.45,VWS V14.01,2013-10-28 18:07:00,
2013-10-28 14:08:00,54.2,19.5,30.21,SSE,167,0.0,1.1,25,0.00,,,0.00,381.50,VWS V14.01,2013-10-28 18:08:00,
2013-10-28 14:09:00,54.0,19.0,30.22,South,170,2.0,2.0,25,0.00,,,0.00,397.38,VWS V14.01,2013-10-28 18:09:00,
2013-10-28 14:10:00,53.7,19.4,30.21,ENE,70,5.6,5.6,26,0.00,,,0.00,402.75,VWS V14.01,2013-10-28 18:10:00,
2013-10-28 14:12:00,53.6,20.2,30.21,ENE,69,5.9,5.9,27,0.00,,,0.00,401.04,VWS V14.01,2013-10-28 18:12:00,
2013-10-28 14:13:00,52.1,19.1,30.23,East,97,5.6,5.9,27,0.00,,,0.00,461.36,VWS V14.01,2013-10-28 18:13:00,
2013-10-28 14:14:00,54.3,20.8,30.22,SE,126,1.1,5.6,27,0.00,,,0.00,480.89,VWS V14.01,2013-10-28 18:14:00,
2013-10-28 14:15:00,54.9,21.1,30.21,SSW,195,0.0,1.1,26,0.00,,,0.00,449.15,VWS V14.01,2013-10-28 18:15:00,
2013-10-28 14:17:00,54.5,19.3,30.22,SE,139,4.9,5.2,25,0.00,,,0.00,463.80,VWS V14.01,2013-10-28 18:17:00,
2013-10-28 14:19:00,54.5,20.8,30.22,SSE,168,2.3,4.0,27,0.00,,,0.00,444.26,VWS V14.01,2013-10-28 18:19:00,
2013-10-28 14:20:00,55.0,21.6,30.23,SE,142,0.0,1.8,27,0.00,,,0.00,463.92,VWS V14.01,2013-10-28 18:20:00,
2013-10-28 14:21:00,55.0,21.6,30.23,SE,142,0.0,1.8,27,0.00,,,0.00,463.92,VWS V14.01,2013-10-28 18:21:00,
2013-10-28 14:22:00,54.8,19.0,30.22,ESE,118,5.1,5.1,24,0.00,,,0.00,478.21,VWS V14.01,2013-10-28 18:22:00,
2013-10-28 14:23:00,53.1,17.4,30.22,East,97,6.8,6.8,24,0.00,,,0.00,480.89,VWS V14.01,2013-10-28 18:23:00,
2013-10-28 14:26:00,54.5,17.9,30.21,SE,126,4.2,4.7,23,0.00,,,0.00,388.83,VWS V14.01,2013-10-28 18:26:00,
2013-10-28 14:27:00,53.1,17.8,30.22,South,183,4.2,4.2,25,0.00,,,0.00,406.04,VWS V14.01,2013-10-28 18:27:00,
2013-10-28 14:29:00,55.3,21.0,30.22,SW,218,1.5,4.2,26,0.00,,,0.00,390.54,VWS V14.01,2013-10-28 18:29:00,
2013-10-28 14:30:00,55.0,20.2,30.21,SSW,205,2.0,2.0,25,0.00,,,0.00,400.31,VWS V14.01,2013-10-28 18:30:00,
2013-10-28 14:31:00,53.8,16.5,30.22,ESE,122,4.4,4.4,23,0.00,,,0.00,410.68,VWS V14.01,2013-10-28 18:31:00,
2013-10-28 14:32:00,54.5,17.1,30.22,SSE,165,3.2,4.4,23,0.00,,,0.00,371.31,VWS V14.01,2013-10-28 18:32:00,
2013-10-28 14:34:00,53.6,16.7,30.22,SSW,202,3.2,3.5,23,0.00,,,0.00,363.43,VWS V14.01,2013-10-28 18:34:00,
2013-10-28 14:35:00,55.1,17.8,30.21,WNW,302,0.0,1.0,23,0.00,,,0.00,359.71,VWS V14.01,2013-10-28 18:35:00,
2013-10-28 14:37:00,53.9,16.8,30.22,East,85,3.9,3.9,23,0.00,,,0.00,371.00,VWS V14.01,2013-10-28 18:37:00,
2013-10-28 14:38:00,54.1,18.6,30.22,ESE,108,4.5,4.5,25,0.00,,,0.00,348.72,VWS V14.01,2013-10-28 18:38:00,
2013-10-28 14:40:00,52.7,18.5,30.22,ESE,114,6.4,6.4,26,0.00,,,0.00,339.26,VWS V14.01,2013-10-28 18:40:00,
2013-10-28 14:42:00,54.0,20.7,30.22,East,96,3.2,6.3,27,0.00,,,0.00,347.07,VWS V14.01,2013-10-28 18:42:00,
2013-10-28 14:44:00,53.1,19.3,30.21,ENE,58,5.9,5.9,26,0.00,,,0.00,337.00,VWS V14.01,2013-10-28 18:44:00,
2013-10-28 14:45:00,55.0,22.4,30.23,ENE,63,3.4,5.9,28,0.00,,,0.00,290.42,VWS V14.01,2013-10-28 18:45:00,
2013-10-28 14:46:00,52.3,18.9,30.23,ENE,67,3.7,3.7,26,0.00,,,0.00,281.38,VWS V14.01,2013-10-28 18:46:00,
2013-10-28 14:48:00,54.7,21.7,30.22,East,88,0.0,2.0,27,0.00,,,0.00,356.11,VWS V14.01,2013-10-28 18:48:00,
2013-10-28 14:49:00,55.3,23.4,30.22,East,88,0.0,2.0,29,0.00,,,0.00,366.73,VWS V14.01,2013-10-28 18:49:00,
2013-10-28 14:50:00,54.3,16.5,30.22,NE,50,3.2,3.2,22,0.00,,,0.00,380.77,VWS V14.01,2013-10-28 18:50:00,
2013-10-28 14:52:00,54.4,19.4,30.22,NE,49,0.0,2.2,25,0.00,,,0.00,363.68,VWS V14.01,2013-10-28 18:52:00,
2013-10-28 14:54:00,56.7,23.2,30.22,NNW,344,0.0,0.0,27,0.00,,,0.00,421.80,VWS V14.01,2013-10-28 18:54:00,
2013-10-28 14:55:00,54.6,18.7,30.23,ENE,64,2.8,2.8,24,0.00,,,0.00,407.63,VWS V14.01,2013-10-28 18:55:00,
2013-10-28 14:56:00,54.6,15.6,30.22,ESE,115,3.7,3.9,21,0.00,,,0.00,403.60,VWS V14.01,2013-10-28 18:56:00,
2013-10-28 14:58:00,53.0,18.4,30.22,NE,54,3.7,5.2,25,0.00,,,0.00,430.34,VWS V14.01,2013-10-28 18:58:00,
2013-10-28 14:59:00,53.4,16.2,30.22,ESE,113,4.2,5.4,23,0.00,,,0.00,447.44,VWS V14.01,2013-10-28 18:59:00,
2013-10-28 15:00:00,53.8,19.8,30.23,ENE,70,5.9,5.9,26,0.00,,,0.00,436.94,VWS V14.01,2013-10-28 19:00:00,
2013-10-28 15:03:00,53.5,18.8,30.22,NE,47,4.0,4.0,25,0.00,,,0.00,407.88,VWS V14.01,2013-10-28 19:03:00,
2013-10-28 15:06:00,53.1,18.3,30.20,NE,53,4.9,6.3,25,0.00,,,0.00,335.10,VWS V14.01,2013-10-28 19:06:00,
2013-10-28 15:07:00,53.0,19.4,30.22,NE,35,5.2,5.2,26,0.00,,,0.00,333.88,VWS V14.01,2013-10-28 19:07:00,
2013-10-28 15:08:00,54.0,20.4,30.21,NNE,27,4.4,6.3,27,0.00,,,0.00,313.55,VWS V14.01,2013-10-28 19:08:00,
2013-10-28 15:10:00,53.7,20.1,30.21,NNE,33,3.2,3.2,26,0.00,,,0.00,319.48,VWS V14.01,2013-10-28 19:10:00,
2013-10-28 15:11:00,54.9,21.0,30.22,NE,42,2.3,3.2,26,0.00,,,0.00,353.91,VWS V14.01,2013-10-28 19:11:00,
2013-10-28 15:12:00,54.4,21.0,30.22,NNE,15,3.2,3.2,27,0.00,,,0.00,340.23,VWS V14.01,2013-10-28 19:12:00,
2013-10-28 15:13:00,54.4,21.0,30.22,NNE,15,3.2,3.2,27,0.00,,,0.00,340.23,VWS V14.01,2013-10-28 19:13:00,
2013-10-28 15:14:00,54.9,20.0,30.22,North,11,2.5,2.7,25,0.00,,,0.00,395.42,VWS V14.01,2013-10-28 19:14:00,
2013-10-28 15:15:00,54.1,19.6,30.23,North,10,3.2,3.2,26,0.00,,,0.00,395.42,VWS V14.01,2013-10-28 19:15:00,
2013-10-28 15:16:00,53.5,19.1,30.23,NE,44,4.4,4.4,26,0.00,,,0.00,371.00,VWS V14.01,2013-10-28 19:16:00,
2013-10-28 15:17:00,55.5,21.5,30.22,NW,313,1.1,4.0,26,0.00,,,0.00,351.47,VWS V14.01,2013-10-28 19:17:00,
2013-10-28 15:18:00,53.2,18.2,30.22,NE,45,6.3,6.3,25,0.00,,,0.00,344.14,VWS V14.01,2013-10-28 19:18:00,
2013-10-28 15:21:00,54.4,20.5,30.22,NNE,29,2.5,3.5,26,0.00,,,0.00,292.86,VWS V14.01,2013-10-28 19:21:00,
2013-10-28 15:23:00,54.8,19.8,30.21,SE,130,2.8,2.8,25,0.00,,,0.00,272.83,VWS V14.01,2013-10-28 19:23:00,
2013-10-28 15:26:00,54.6,20.6,30.22,SE,140,3.9,5.1,26,0.00,,,0.00,261.11,VWS V14.01,2013-10-28 19:26:00,
2013-10-28 15:27:00,55.4,21.6,30.22,SE,138,3.0,4.4,27,0.00,,,0.00,285.84,VWS V14.01,2013-10-28 19:27:00,
2013-10-28 15:28:00,55.4,21.6,30.22,SE,138,3.0,3.0,27,0.00,,,0.00,285.84,VWS V14.01,2013-10-28 19:28:00,
2013-10-28 15:29:00,55.0,20.9,30.21,SSE,167,3.7,4.5,26,0.00,,,0.00,285.53,VWS V14.01,2013-10-28 19:29:00,
2013-10-28 15:31:00,54.1,19.9,30.21,SSE,152,4.4,4.9,26,0.00,,,0.00,319.96,VWS V14.01,2013-10-28 19:31:00,
2013-10-28 15:32:00,55.4,21.3,30.22,SSE,168,5.1,5.1,26,0.00,,,0.00,336.81,VWS V14.01,2013-10-28 19:32:00,
2013-10-28 15:33:00,55.2,20.9,30.21,East,80,3.2,4.5,26,0.00,,,0.00,369.78,VWS V14.01,2013-10-28 19:33:00,
2013-10-28 15:34:00,53.6,18.7,30.21,ESE,121,3.5,5.2,25,0.00,,,0.00,270.88,VWS V14.01,2013-10-28 19:34:00,
2013-10-28 15:37:00,54.0,19.6,30.22,SE,129,3.4,4.9,26,0.00,,,0.00,177.84,VWS V14.01,2013-10-28 19:37:00,
2013-10-28 15:38:00,54.5,20.3,30.22,SE,144,2.7,2.7,26,0.00,,,0.00,186.57,VWS V14.01,2013-10-28 19:38:00,
2013-10-28 15:39:00,54.1,19.9,30.23,ENE,68,2.5,2.7,26,0.00,,,0.00,178.69,VWS V14.01,2013-10-28 19:39:00,
2013-10-28 15:40:00,54.3,20.5,30.22,NE,43,3.0,3.7,26,0.00,,,0.00,174.42,VWS V14.01,2013-10-28 19:40:00,
2013-10-28 15:41:00,53.2,18.7,30.22,NE,38,2.5,3.0,25,0.00,,,0.00,198.53,VWS V14.01,2013-10-28 19:41:00,
2013-10-28 15:43:00,53.7,20.2,30.22,NNW,339,4.9,4.9,27,0.00,,,0.00,276.25,VWS V14.01,2013-10-28 19:43:00,
2013-10-28 15:44:00,53.9,20.4,30.23,ENE,58,2.2,3.0,27,0.00,,,0.00,270.88,VWS V14.01,2013-10-28 19:44:00,
2013-10-28 15:45:00,53.5,19.8,30.22,NE,53,2.7,2.7,26,0.00,,,0.00,263.31,VWS V14.01,2013-10-28 19:45:00,
2013-10-28 15:47:00,53.8,19.9,30.21,South,178,2.8,2.8,26,0.00,,,0.00,259.40,VWS V14.01,2013-10-28 19:47:00,
2013-10-28 15:50:00,55.1,20.9,30.22,SSE,150,4.5,4.5,26,0.00,,,0.00,299.94,VWS V14.01,2013-10-28 19:50:00,
2013-10-28 15:51:00,55.8,21.6,30.22,SSE,157,2.8,2.8,26,0.00,,,0.00,287.24,VWS V14.01,2013-10-28 19:51:00,
2013-10-28 15:53:00,54.9,21.1,30.22,ENE,67,4.9,4.9,26,0.00,,,0.00,253.79,VWS V14.01,2013-10-28 19:53:00,
2013-10-28 15:54:00,53.6,19.4,30.22,ESE,117,6.1,6.1,26,0.00,,,0.00,266.24,VWS V14.01,2013-10-28 19:54:00,
2013-10-28 15:55:00,54.9,21.3,30.22,SE,140,3.9,5.6,27,0.00,,,0.00,295.79,VWS V14.01,2013-10-28 19:55:00,
2013-10-28 15:57:00,55.6,21.8,30.23,SE,125,4.0,5.2,27,0.00,,,0.00,279.91,VWS V14.01,2013-10-28 19:57:00,
2013-10-28 15:58:00,54.6,19.9,30.23,ESE,118,3.9,4.9,25,0.00,,,0.00,348.96,VWS V14.01,2013-10-28 19:58:00,
2013-10-28 16:00:00,54.5,19.5,30.22,ESE,106,3.4,3.9,25,0.00,,,0.00,333.15,VWS V14.01,2013-10-28 20:00:00,
2013-10-28 16:01:00,55.2,20.5,30.22,SE,125,3.9,5.2,25,0.00,,,0.00,329.49,VWS V14.01,2013-10-28 20:01:00,
2013-10-28 16:02:00,54.2,19.7,30.24,East,86,5.1,5.2,26,0.00,,,0.00,280.65,VWS V14.01,2013-10-28 20:02:00,
2013-10-28 16:03:00,54.2,19.7,30.24,East,86,5.1,5.2,26,0.00,,,0.00,280.65,VWS V14.01,2013-10-28 20:03:00,
2013-10-28 16:04:00,53.7,19.4,30.23,East,88,5.6,5.6,26,0.00,,,0.00,292.12,VWS V14.01,2013-10-28 20:04:00,
2013-10-28 16:05:00,54.3,19.9,30.23,East,92,4.5,5.6,26,0.00,,,0.00,290.90,VWS V14.01,2013-10-28 20:05:00,
2013-10-28 16:07:00,54.9,19.9,30.22,ESE,115,3.9,5.6,25,0.00,,,0.00,314.84,VWS V14.01,2013-10-28 20:07:00,
2013-10-28 16:08:00,55.2,20.6,30.21,ESE,106,2.2,5.6,26,0.00,,,0.00,298.35,VWS V14.01,2013-10-28 20:08:00,
2013-10-28 16:09:00,54.8,19.8,30.22,NE,37,2.3,5.6,25,0.00,,,0.00,286.02,VWS V14.01,2013-10-28 20:09:00,
2013-10-28 16:10:00,55.1,19.7,30.22,ESE,107,5.2,5.6,25,0.00,,,0.00,282.72,VWS V14.01,2013-10-28 20:10:00,
2013-10-28 16:12:00,54.4,20.0,30.23,ENE,75,3.4,5.6,26,0.00,,,0.00,273.32,VWS V14.01,2013-10-28 20:12:00,
2013-10-28 16:14:00,55.5,20.6,30.23,SE,142,4.0,5.6,25,0.00,,,0.00,302.63,VWS V14.01,2013-10-28 20:14:00,
2013-10-28 16:16:00,54.7,19.9,30.21,SE,139,6.1,6.1,25,0.00,,,0.00,302.32,VWS V14.01,2013-10-28 20:16:00,
2013-10-28 16:17:00,55.0,20.1,30.21,East,99,3.7,6.1,25,0.00,,,0.00,302.63,VWS V14.01,2013-10-28 20:17:00,
2013-10-28 16:19:00,55.7,20.9,30.24,SE,131,3.4,6.1,26,0.00,,,0.00,294.44,VWS V14.01,2013-10-28 20:19:00,
2013-10-28 16:21:00,54.5,19.8,30.23,SE,130,6.3,6.3,25,0.00,,,0.00,252.56,VWS V14.01,2013-10-28 20:21:00,
2013-10-28 16:22:00,54.3,19.2,30.24,SSE,152,4.9,6.3,25,0.00,,,0.00,236.69,VWS V14.01,2013-10-28 20:22:00,
2013-10-28 16:24:00,55.0,20.4,30.23,ESE,123,4.4,6.3,26,0.00,,,0.00,244.32,VWS V14.01,2013-10-28 20:24:00,
2013-10-28 16:27:00,54.5,17.9,30.23,ENE,64,3.2,6.3,23,0.00,,,0.00,252.56,VWS V14.01,2013-10-28 20:27:00,
2013-10-28 16:28:00,55.2,20.2,30.24,NE,38,5.1,6.3,25,0.00,,,0.00,246.70,VWS V14.01,2013-10-28 20:28:00,
2013-10-28 16:29:00,54.9,20.2,30.24,NNE,29,3.2,6.3,26,0.00,,,0.00,229.12,VWS V14.01,2013-10-28 20:29:00,
2013-10-28 16:30:00,53.6,17.8,30.23,NNE,22,4.2,6.3,24,0.00,,,0.00,249.15,VWS V14.01,2013-10-28 20:30:00,
2013-10-28 16:33:00,54.3,20.0,30.24,ENE,75,6.9,6.9,26,0.00,,,0.00,232.17,VWS V14.01,2013-10-28 20:33:00,
2013-10-28 16:34:00,54.1,18.9,30.24,SE,134,3.0,6.9,25,0.00,,,0.00,211.78,VWS V14.01,2013-10-28 20:34:00,
2013-10-28 16:35:00,54.1,18.9,30.24,SE,134,3.0,6.9,25,0.00,,,0.00,211.78,VWS V14.01,2013-10-28 20:35:00,
2013-10-28 16:37:00,54.8,20.3,30.23,ESE,104,4.0,6.9,26,0.00,,,0.00,249.15,VWS V14.01,2013-10-28 20:37:00,
2013-10-28 16:38:00,54.1,19.3,30.23,East,96,2.3,6.9,25,0.00,,,0.00,237.85,VWS V14.01,2013-10-28 20:38:00,
2013-10-28 16:41:00,54.0,19.8,30.22,ENE,72,3.5,6.9,26,0.00,,,0.00,148.78,VWS V14.01,2013-10-28 20:41:00,
2013-10-28 16:42:00,54.5,21.1,30.23,East,86,2.8,6.9,27,0.00,,,0.00,145.42,VWS V14.01,2013-10-28 20:42:00,
2013-10-28 16:43:00,53.9,19.9,30.23,ENE,75,4.0,6.9,26,0.00,,,0.00,131.99,VWS V14.01,2013-10-28 20:43:00,
2013-10-28 16:44:00,53.9,19.9,30.23,ENE,75,4.0,6.9,26,0.00,,,0.00,131.99,VWS V14.01,2013-10-28 20:44:00,
2013-10-28 16:45:00,53.5,19.8,30.23,ENE,70,3.7,6.9,26,0.00,,,0.00,121.92,VWS V14.01,2013-10-28 20:45:00,
2013-10-28 16:47:00,53.6,20.1,30.23,ESE,119,3.5,6.9,27,0.00,,,0.00,112.76,VWS V14.01,2013-10-28 20:47:00,
2013-10-28 16:48:00,53.7,20.0,30.23,ESE,123,2.5,6.9,26,0.00,,,0.00,109.40,VWS V14.01,2013-10-28 20:48:00,
2013-10-28 16:49:00,53.6,20.2,30.24,SE,132,2.5,6.9,27,0.00,,,0.00,107.51,VWS V14.01,2013-10-28 20:49:00,
2013-10-28 16:50:00,53.6,20.2,30.24,SE,132,2.5,6.9,27,0.00,,,0.00,107.51,VWS V14.01,2013-10-28 20:50:00,
2013-10-28 16:52:00,53.3,20.2,30.24,East,81,3.7,6.9,27,0.00,,,0.00,112.15,VWS V14.01,2013-10-28 20:52:00,
2013-10-28 16:53:00,53.3,20.2,30.24,East,81,3.7,6.9,27,0.00,,,0.00,112.15,VWS V14.01,2013-10-28 20:53:00,
2013-10-28 16:55:00,53.4,20.9,30.24,ENE,67,4.2,6.9,28,0.00,,,0.00,134.43,VWS V14.01,2013-10-28 20:55:00,
2013-10-28 16:57:00,53.6,20.9,30.24,East,85,2.3,6.9,27,0.00,,,0.00,129.24,VWS V14.01,2013-10-28 20:57:00,
2013-10-28 16:58:00,53.7,21.0,30.23,East,91,2.8,6.9,28,0.00,,,0.00,126.80,VWS V14.01,2013-10-28 20:58:00,
2013-10-28 17:00:00,53.6,21.1,30.24,East,85,2.5,6.9,28,0.00,,,0.00,115.45,VWS V14.01,2013-10-28 21:00:00,
2013-10-28 17:01:00,53.8,21.5,30.24,SSE,149,3.5,6.9,28,0.00,,,0.00,113.61,VWS V14.01,2013-10-28 21:01:00,
2013-10-28 17:03:00,53.2,21.6,30.24,East,84,4.9,4.9,29,0.00,,,0.00,112.15,VWS V14.01,2013-10-28 21:03:00,
2013-10-28 17:04:00,53.2,21.1,30.24,ENE,67,3.0,4.9,28,0.00,,,0.00,112.45,VWS V14.01,2013-10-28 21:04:00,
2013-10-28 17:06:00,53.3,21.1,30.23,ENE,62,3.9,3.9,28,0.00,,,0.00,114.35,VWS V14.01,2013-10-28 21:06:00,
2013-10-28 17:07:00,53.2,21.3,30.24,East,93,3.5,3.5,28,0.00,,,0.00,113.13,VWS V14.01,2013-10-28 21:07:00,
2013-10-28 17:08:00,53.2,21.6,30.24,ENE,72,4.7,4.7,29,0.00,,,0.00,111.78,VWS V14.01,2013-10-28 21:08:00,
2013-10-28 17:09:00,53.3,22.2,30.24,East,79,3.2,4.7,29,0.00,,,0.00,116.30,VWS V14.01,2013-10-28 21:09:00,
2013-10-28 17:10:00,53.1,21.8,30.24,ENE,76,4.4,4.5,29,0.00,,,0.00,105.43,VWS V14.01,2013-10-28 21:10:00,
2013-10-28 17:11:00,53.1,21.6,30.24,NNE,30,3.0,5.9,29,0.00,,,0.00,99.63,VWS V14.01,2013-10-28 21:11:00,
2013-10-28 17:14:00,53.1,22.4,30.23,ENE,75,4.0,4.7,30,0.00,,,0.00,101.65,VWS V14.01,2013-10-28 21:14:00,
2013-10-28 17:16:00,53.0,21.8,30.22,ENE,59,4.4,5.2,29,0.00,,,0.00,90.48,VWS V14.01,2013-10-28 21:16:00,
2013-10-28 17:17:00,52.9,21.8,30.23,NE,48,2.5,4.4,29,0.00,,,0.00,92.61,VWS V14.01,2013-10-28 21:17:00,
2013-10-28 17:18:00,53.2,22.2,30.24,ENE,60,1.6,2.5,30,0.00,,,0.00,102.08,VWS V14.01,2013-10-28 21:18:00,
2013-10-28 17:19:00,53.1,21.6,30.24,ENE,59,5.1,5.1,29,0.00,,,0.00,107.26,VWS V14.01,2013-10-28 21:19:00,
2013-10-28 17:20:00,53.1,21.6,30.24,ENE,63,4.7,5.1,29,0.00,,,0.00,101.77,VWS V14.01,2013-10-28 21:20:00,
2013-10-28 17:23:00,53.0,22.6,30.24,NE,50,3.0,3.9,30,0.00,,,0.00,95.06,VWS V14.01,2013-10-28 21:23:00,
2013-10-28 17:24:00,52.9,22.5,30.24,ENE,68,2.7,3.0,30,0.00,,,0.00,96.03,VWS V14.01,2013-10-28 21:24:00,
2013-10-28 17:25:00,53.0,22.1,30.24,ENE,69,3.9,3.9,30,0.00,,,0.00,93.71,VWS V14.01,2013-10-28 21:25:00,
2013-10-28 17:29:00,53.0,22.3,30.25,NE,49,1.8,2.2,30,0.00,,,0.00,92.37,VWS V14.01,2013-10-28 21:29:00,
2013-10-28 17:30:00,53.0,22.2,30.25,NE,51,2.7,2.7,30,0.00,,,0.00,93.10,VWS V14.01,2013-10-28 21:30:00,
2013-10-28 17:31:00,53.0,22.0,30.25,NE,56,2.2,2.7,30,0.00,,,0.00,94.51,VWS V14.01,2013-10-28 21:31:00,
2013-10-28 17:32:00,52.9,22.1,30.25,NE,54,3.4,3.4,30,0.00,,,0.00,97.25,VWS V14.01,2013-10-28 21:32:00,
2013-10-28 17:34:00,52.9,22.7,30.24,ENE,71,2.8,4.0,31,0.00,,,0.00,94.20,VWS V14.01,2013-10-28 21:34:00,
2013-10-28 17:35:00,52.9,22.4,30.24,East,79,5.4,5.4,30,0.00,,,0.00,93.22,VWS V14.01,2013-10-28 21:35:00,
2013-10-28 17:36:00,52.8,22.5,30.24,ENE,68,3.7,5.4,30,0.00,,,0.00,92.31,VWS V14.01,2013-10-28 21:36:00,
2013-10-28 17:37:00,52.7,22.6,30.24,East,93,4.9,4.9,31,0.00,,,0.00,93.16,VWS V14.01,2013-10-28 21:37:00,
2013-10-28 17:39:00,52.6,23.3,30.23,ENE,68,1.6,3.7,32,0.00,,,0.00,87.97,VWS V14.01,2013-10-28 21:39:00,
2013-10-28 17:40:00,52.5,23.5,30.23,ENE,70,2.8,2.8,32,0.00,,,0.00,87.73,VWS V14.01,2013-10-28 21:40:00,
2013-10-28 17:42:00,52.7,23.1,30.24,ESE,122,4.5,5.7,31,0.00,,,0.00,80.71,VWS V14.01,2013-10-28 21:42:00,
2013-10-28 17:44:00,52.6,23.5,30.24,East,90,3.5,3.9,32,0.00,,,0.00,95.36,VWS V14.01,2013-10-28 21:44:00,
2013-10-28 17:46:00,52.5,23.8,30.24,ENE,73,2.5,2.8,32,0.00,,,0.00,98.35,VWS V14.01,2013-10-28 21:46:00,
2013-10-28 17:47:00,52.8,23.6,30.24,East,94,3.2,4.4,32,0.00,,,0.00,107.45,VWS V14.01,2013-10-28 21:47:00,
2013-10-28 17:48:00,52.7,23.7,30.23,East,86,3.0,3.0,32,0.00,,,0.00,109.71,VWS V14.01,2013-10-28 21:48:00,
2013-10-28 17:50:00,52.9,23.8,30.24,ENE,74,3.4,4.0,32,0.00,,,0.00,111.11,VWS V14.01,2013-10-28 21:50:00,
2013-10-28 17:52:00,52.9,23.7,30.27,ESE,106,4.0,4.0,32,0.00,,,0.00,107.26,VWS V14.01,2013-10-28 21:52:00,
2013-10-28 17:54:00,53.4,24.5,30.23,ESE,116,3.5,3.5,32,0.00,,,0.00,108.18,VWS V14.01,2013-10-28 21:54:00,
2013-10-28 17:55:00,53.1,24.3,30.24,East,88,3.0,3.5,32,0.00,,,0.00,104.76,VWS V14.01,2013-10-28 21:55:00,
2013-10-28 17:57:00,52.7,24.0,30.24,East,83,3.2,3.2,32,0.00,,,0.00,80.10,VWS V14.01,2013-10-28 21:57:00,
2013-10-28 17:59:00,52.8,23.7,30.23,East,84,3.7,3.9,32,0.00,,,0.00,94.75,VWS V14.01,2013-10-28 21:59:00,
2013-10-28 18:00:00,52.7,24.0,30.22,ENE,58,2.0,3.7,32,0.00,,,0.00,87.73,VWS V14.01,2013-10-28 22:00:00,
2013-10-28 18:04:00,52.5,23.9,30.24,East,90,2.8,4.4,32,0.00,,,0.00,75.82,VWS V14.01,2013-10-28 22:04:00,
2013-10-28 18:05:00,52.6,23.9,30.24,ENE,78,2.3,4.4,32,0.00,,,0.00,73.08,VWS V14.01,2013-10-28 22:05:00,
2013-10-28 18:06:00,52.7,21.1,30.24,ENE,65,1.8,4.4,29,0.00,,,0.00,75.70,VWS V14.01,2013-10-28 22:06:00,
2013-10-28 18:07:00,52.4,23.4,30.24,ENE,62,2.7,4.4,32,0.00,,,0.00,67.89,VWS V14.01,2013-10-28 22:07:00,
2013-10-28 18:10:00,52.3,23.4,30.24,ENE,60,2.2,4.4,32,0.00,,,0.00,65.75,VWS V14.01,2013-10-28 22:10:00,
2013-10-28 18:11:00,52.0,23.4,30.24,East,81,0.0,4.4,32,0.00,,,0.00,63.31,VWS V14.01,2013-10-28 22:11:00,
2013-10-28 18:13:00,52.1,23.6,30.23,ENE,78,3.5,4.4,33,0.00,,,0.00,58.18,VWS V14.01,2013-10-28 22:13:00,
2013-10-28 18:15:00,51.6,23.5,30.24,East,83,2.7,4.4,33,0.00,,,0.00,50.24,VWS V14.01,2013-10-28 22:15:00,
2013-10-28 18:16:00,51.5,23.5,30.24,ENE,67,2.0,4.4,33,0.00,,,0.00,48.66,VWS V14.01,2013-10-28 22:16:00,
2013-10-28 18:17:00,51.8,23.6,30.25,East,79,3.0,4.4,33,0.00,,,0.00,45.97,VWS V14.01,2013-10-28 22:17:00,
2013-10-28 18:19:00,51.6,24.0,30.24,NE,55,4.4,4.4,34,0.00,,,0.00,38.83,VWS V14.01,2013-10-28 22:19:00,
2013-10-28 18:21:00,51.2,24.9,30.25,NE,47,4.4,7.5,36,0.00,,,0.00,35.65,VWS V14.01,2013-10-28 22:21:00,
2013-10-28 18:22:00,50.8,26.5,30.25,ENE,68,5.7,7.5,39,0.00,,,0.00,31.56,VWS V14.01,2013-10-28 22:22:00,
2013-10-28 18:23:00,50.8,26.5,30.25,ENE,68,5.7,7.5,39,0.00,,,0.00,31.56,VWS V14.01,2013-10-28 22:23:00,
2013-10-28 18:24:00,50.6,26.9,30.25,ENE,73,4.0,7.5,40,0.00,,,0.00,27.29,VWS V14.01,2013-10-28 22:24:00,
2013-10-28 18:25:00,50.4,27.2,30.25,NE,54,4.7,7.5,40,0.00,,,0.00,26.68,VWS V14.01,2013-10-28 22:25:00,
2013-10-28 18:26:00,50.1,27.6,30.25,ENE,58,5.9,7.5,41,0.00,,,0.00,21.79,VWS V14.01,2013-10-28 22:26:00,
2013-10-28 18:29:00,49.9,28.6,30.25,ENE,61,4.5,7.5,43,0.00,,,0.00,15.93,VWS V14.01,2013-10-28 22:29:00,
2013-10-28 18:30:00,49.8,28.8,30.25,ENE,68,5.1,7.5,44,0.00,,,0.00,14.47,VWS V14.01,2013-10-28 22:30:00,
2013-10-28 18:31:00,49.8,29.3,30.26,East,82,5.9,7.5,45,0.00,,,0.00,11.72,VWS V14.01,2013-10-28 22:31:00,
2013-10-28 18:32:00,49.6,29.1,30.26,ENE,65,6.4,7.5,45,0.00,,,0.00,12.33,VWS V14.01,2013-10-28 22:32:00,
2013-10-28 18:33:00,49.7,29.4,30.26,ENE,59,5.9,7.5,45,0.00,,,0.00,8.97,VWS V14.01,2013-10-28 22:33:00,
2013-10-28 18:34:00,49.3,29.2,30.26,ENE,64,7.1,7.5,46,0.00,,,0.00,9.16,VWS V14.01,2013-10-28 22:34:00,
2013-10-28 18:35:00,49.4,29.5,30.26,East,80,6.1,7.5,46,0.00,,,0.00,7.14,VWS V14.01,2013-10-28 22:35:00,
2013-10-28 18:37:00,49.2,29.6,30.25,NE,50,5.9,7.5,47,0.00,,,0.00,4.21,VWS V14.01,2013-10-28 22:37:00,
2013-10-28 18:38:00,49.4,29.8,30.25,ENE,65,7.6,7.6,47,0.00,,,0.00,2.50,VWS V14.01,2013-10-28 22:38:00,
2013-10-28 18:39:00,49.4,29.9,30.25,ENE,72,7.6,7.6,47,0.00,,,0.00,2.26,VWS V14.01,2013-10-28 22:39:00,
2013-10-28 18:40:00,49.1,29.7,30.25,NE,53,6.1,7.6,47,0.00,,,0.00,2.26,VWS V14.01,2013-10-28 22:40:00,
2013-10-28 18:41:00,48.8,29.6,30.26,NE,54,4.7,7.6,47,0.00,,,0.00,2.26,VWS V14.01,2013-10-28 22:41:00,
2013-10-28 18:44:00,48.5,29.7,30.25,ENE,64,4.0,7.6,48,0.00,,,0.00,1.16,VWS V14.01,2013-10-28 22:44:00,
2013-10-28 18:46:00,48.0,29.6,30.26,ENE,69,3.9,7.6,49,0.00,,,0.00,0.79,VWS V14.01,2013-10-28 22:46:00,
2013-10-28 18:47:00,48.3,29.9,30.26,NE,43,3.9,7.6,49,0.00,,,0.00,0.98,VWS V14.01,2013-10-28 22:47:00,
2013-10-28 18:49:00,48.3,30.0,30.27,ENE,60,3.4,7.6,49,0.00,,,0.00,0.06,VWS V14.01,2013-10-28 22:49:00,
2013-10-28 18:50:00,48.0,30.0,30.27,ENE,71,3.5,7.6,49,0.00,,,0.00,0.00,VWS V14.01,2013-10-28 22:50:00,
2013-10-28 18:51:00,48.3,30.5,30.27,ENE,57,4.2,7.6,50,0.00,,,0.00,0.00,VWS V14.01,2013-10-28 22:51:00,
2013-10-28 18:52:00,47.7,30.0,30.26,ENE,59,2.8,7.6,50,0.00,,,0.00,0.00,VWS V14.01,2013-10-28 22:52:00,
2013-10-28 18:54:00,48.0,30.4,30.27,East,93,4.9,7.6,50,0.00,,,0.00,0.06,VWS V14.01,2013-10-28 22:54:00,
2013-10-28 18:55:00,47.8,30.0,30.26,East,91,3.0,7.6,50,0.00,,,0.00,0.00,VWS V14.01,2013-10-28 22:55:00,
2013-10-28 18:57:00,47.7,30.4,30.26,ENE,75,3.7,7.6,51,0.00,,,0.00,0.00,VWS V14.01,2013-10-28 22:57:00,
2013-10-28 18:58:00,48.0,31.0,30.26,ENE,62,4.7,7.6,51,0.00,,,0.00,0.00,VWS V14.01,2013-10-28 22:58:00,
2013-10-28 19:00:00,47.7,30.7,30.27,ENE,69,6.4,7.6,52,0.00,,,0.00,0.00,VWS V14.01,2013-10-28 23:00:00,
2013-10-28 19:01:00,48.1,29.8,30.27,East,92,6.4,8.5,49,0.00,,,0.00,0.00,VWS V14.01,2013-10-28 23:01:00,
2013-10-28 19:03:00,47.7,30.6,30.27,East,81,3.7,4.2,51,0.00,,,0.00,0.43,VWS V14.01,2013-10-28 23:03:00,
2013-10-28 19:05:00,47.8,30.9,30.27,ENE,66,5.1,5.1,52,0.00,,,0.00,0.00,VWS V14.01,2013-10-28 23:05:00,
2013-10-28 19:06:00,48.1,30.0,30.27,East,90,6.6,6.6,49,0.00,,,0.00,0.00,VWS V14.01,2013-10-28 23:06:00,
2013-10-28 19:07:00,47.5,30.6,30.28,ENE,64,3.9,6.6,52,0.00,,,0.00,0.00,VWS V14.01,2013-10-28 23:07:00,
2013-10-28 19:08:00,48.1,31.3,30.28,East,91,5.1,5.1,52,0.00,,,0.00,0.00,VWS V14.01,2013-10-28 23:08:00,
2013-10-28 19:09:00,47.5,29.8,30.27,ENE,73,5.2,5.2,50,0.00,,,0.00,0.00,VWS V14.01,2013-10-28 23:09:00,
2013-10-28 19:11:00,47.5,31.2,30.27,ENE,68,5.4,5.4,53,0.00,,,0.00,0.00,VWS V14.01,2013-10-28 23:11:00,
2013-10-28 19:12:00,47.4,31.2,30.28,NE,50,3.5,3.5,53,0.00,,,0.00,0.00,VWS V14.01,2013-10-28 23:12:00,
2013-10-28 19:17:00,46.0,30.5,30.28,East,89,2.2,4.2,54,0.00,,,0.00,0.43,VWS V14.01,2013-10-28 23:17:00,
2013-10-28 19:18:00,46.6,31.2,30.28,East,82,2.8,2.8,55,0.00,,,0.00,0.73,VWS V14.01,2013-10-28 23:18:00,
2013-10-28 19:19:00,45.5,30.3,30.28,East,85,1.8,3.2,55,0.00,,,0.00,0.00,VWS V14.01,2013-10-28 23:19:00,
2013-10-28 19:23:00,45.3,30.8,30.28,ENE,77,2.3,4.0,56,0.00,,,0.00,0.00,VWS V14.01,2013-10-28 23:23:00,
2013-10-28 19:24:00,45.6,31.2,30.28,ENE,64,3.9,3.9,57,0.00,,,0.00,0.00,VWS V14.01,2013-10-28 23:24:00,
2013-10-28 19:25:00,45.8,31.4,30.28,ENE,64,2.0,3.9,57,0.00,,,0.00,0.00,VWS V14.01,2013-10-28 23:25:00,
2013-10-28 19:26:00,45.4,31.3,30.28,ENE,71,2.8,2.8,58,0.00,,,0.00,0.00,VWS V14.01,2013-10-28 23:26:00,
2013-10-28 19:28:00,45.6,31.5,30.28,ENE,78,3.0,6.3,57,0.00,,,0.00,0.00,VWS V14.01,2013-10-28 23:28:00,
2013-10-28 19:30:00,46.1,32.3,30.28,East,92,4.2,4.2,58,0.00,,,0.00,0.00,VWS V14.01,2013-10-28 23:30:00,
2013-10-28 19:31:00,45.3,31.5,30.29,East,94,2.8,2.8,58,0.00,,,0.00,0.00,VWS V14.01,2013-10-28 23:31:00,
2013-10-28 19:32:00,45.5,32.1,30.28,ENE,61,3.0,3.0,59,0.00,,,0.00,0.00,VWS V14.01,2013-10-28 23:32:00,
2013-10-28 19:33:00,46.1,32.8,30.29,ENE,76,3.7,3.7,59,0.00,,,0.00,0.43,VWS V14.01,2013-10-28 23:33:00,
2013-10-28 19:35:00,46.2,32.7,30.28,NE,50,3.7,5.7,59,0.00,,,0.00,0.00,VWS V14.01,2013-10-28 23:35:00,
2013-10-28 19:36:00,45.9,32.4,30.29,East,95,4.0,4.0,59,0.00,,,0.00,0.00,VWS V14.01,2013-10-28 23:36:00,
2013-10-28 19:37:00,46.1,32.6,30.29,ENE,66,5.2,5.2,59,0.00,,,0.00,0.00,VWS V14.01,2013-10-28 23:37:00,
2013-10-28 19:38:00,46.1,32.7,30.29,NE,49,4.4,4.4,59,0.00,,,0.00,0.00,VWS V14.01,2013-10-28 23:38:00,
2013-10-28 19:40:00,46.0,32.5,30.29,ENE,72,5.7,7.3,59,0.00,,,0.00,0.00,VWS V14.01,2013-10-28 23:40:00,
2013-10-28 19:42:00,46.5,32.8,30.29,ENE,67,6.1,6.1,59,0.00,,,0.00,0.00,VWS V14.01,2013-10-28 23:42:00,
2013-10-28 19:43:00,46.2,32.5,30.29,East,93,6.1,6.1,59,0.00,,,0.00,0.00,VWS V14.01,2013-10-28 23:43:00,
2013-10-28 19:44:00,46.3,32.7,30.29,ENE,71,7.8,7.8,59,0.00,,,0.00,0.00,VWS V14.01,2013-10-28 23:44:00,
2013-10-28 19:47:00,45.9,32.5,30.29,ENE,68,5.1,5.1,59,0.00,,,0.00,0.00,VWS V14.01,2013-10-28 23:47:00,
2013-10-28 19:48:00,46.2,32.9,30.29,East,91,5.7,5.7,59,0.00,,,0.00,0.00,VWS V14.01,2013-10-28 23:48:00,
2013-10-28 19:49:00,46.1,32.6,30.30,ENE,63,3.9,5.1,59,0.00,,,0.00,0.00,VWS V14.01,2013-10-28 23:49:00,
2013-10-28 19:50:00,45.4,32.1,30.29,East,83,2.8,4.9,59,0.00,,,0.00,0.00,VWS V14.01,2013-10-28 23:50:00,
2013-10-28 19:52:00,44.8,32.0,30.29,ENE,74,2.5,4.2,61,0.00,,,0.00,0.43,VWS V14.01,2013-10-28 23:52:00,
2013-10-28 19:53:00,45.4,32.8,30.29,ENE,65,4.2,4.2,61,0.00,,,0.00,0.00,VWS V14.01,2013-10-28 23:53:00,
2013-10-28 19:55:00,44.8,32.3,30.33,ENE,70,3.2,3.2,61,0.00,,,0.00,0.12,VWS V14.01,2013-10-28 23:55:00,
2013-10-28 19:56:00,45.3,33.1,30.29,East,94,3.9,4.0,62,0.00,,,0.00,0.00,VWS V14.01,2013-10-28 23:56:00,
2013-10-28 19:58:00,45.3,33.2,30.29,ENE,67,4.0,4.0,62,0.00,,,0.00,0.00,VWS V14.01,2013-10-28 23:58:00,
2013-10-28 19:59:00,45.9,33.7,30.30,East,89,6.1,6.1,62,0.00,,,0.00,0.00,VWS V14.01,2013-10-28 23:59:00,
2013-10-28 20:00:00,45.0,32.7,30.30,ENE,65,2.7,6.1,62,0.00,,,0.00,0.00,VWS V14.01,2013-10-29 00:00:00,
2013-10-28 20:01:00,44.5,32.4,30.29,ENE,72,2.2,2.7,62,0.00,,,0.00,0.00,VWS V14.01,2013-10-29 00:01:00,
2013-10-28 20:02:00,44.2,32.2,30.30,East,79,2.5,2.5,62,0.00,,,0.00,0.00,VWS V14.01,2013-10-29 00:02:00,
2013-10-28 20:04:00,44.2,32.5,30.30,ENE,77,2.5,3.9,63,0.00,,,0.00,0.00,VWS V14.01,2013-10-29 00:04:00,
2013-10-28 20:05:00,44.0,32.4,30.30,East,91,2.5,2.5,63,0.00,,,0.00,0.06,VWS V14.01,2013-10-29 00:05:00,
2013-10-28 20:06:00,44.2,32.7,30.30,East,91,2.2,2.5,64,0.00,,,0.00,0.00,VWS V14.01,2013-10-29 00:06:00,
2013-10-28 20:07:00,43.8,32.5,30.29,East,93,2.3,3.7,64,0.00,,,0.00,0.00,VWS V14.01,2013-10-29 00:07:00,
2013-10-28 20:11:00,43.6,33.0,30.30,East,95,2.0,2.2,66,0.00,,,0.00,0.00,VWS V14.01,2013-10-29 00:11:00,
2013-10-28 20:12:00,44.0,33.6,30.30,East,84,2.3,2.5,67,0.00,,,0.00,0.00,VWS V14.01,2013-10-29 00:12:00,
2013-10-28 20:13:00,43.3,33.0,30.30,East,80,2.3,2.3,67,0.00,,,0.00,0.00,VWS V14.01,2013-10-29 00:13:00,
2013-10-28 20:14:00,43.0,32.9,30.30,East,81,1.8,2.3,67,0.00,,,0.00,0.00,VWS V14.01,2013-10-29 00:14:00,
2013-10-28 20:16:00,43.3,33.4,30.31,ENE,73,2.5,2.5,68,0.00,,,0.00,0.00,VWS V14.01,2013-10-29 00:16:00,
2013-10-28 20:17:00,44.1,34.2,30.31,ENE,71,3.2,3.2,68,0.00,,,0.00,0.00,VWS V14.01,2013-10-29 00:17:00,
2013-10-28 20:19:00,43.4,33.5,30.30,East,88,2.5,2.5,68,0.00,,,0.00,0.00,VWS V14.01,2013-10-29 00:19:00,
2013-10-28 20:20:00,43.8,34.2,30.29,ENE,69,3.2,3.2,69,0.00,,,0.00,0.00,VWS V14.01,2013-10-29 00:20:00,
2013-10-28 20:22:00,43.9,34.3,30.30,NE,50,4.4,4.4,69,0.00,,,0.00,0.00,VWS V14.01,2013-10-29 00:22:00,
2013-10-28 20:23:00,43.7,34.0,30.30,East,93,3.4,4.4,68,0.00,,,0.00,0.00,VWS V14.01,2013-10-29 00:23:00,
2013-10-28 20:24:00,44.0,34.2,30.30,ENE,65,2.8,3.4,68,0.00,,,0.00,0.00,VWS V14.01,2013-10-29 00:24:00,
2013-10-28 20:25:00,44.3,34.8,30.30,ENE,74,3.5,3.5,69,0.00,,,0.00,0.00,VWS V14.01,2013-10-29 00:25:00,
2013-10-28 20:29:00,43.8,34.2,30.30,ENE,72,3.7,3.7,69,0.00,,,0.00,0.00,VWS V14.01,2013-10-29 00:29:00,
2013-10-28 20:31:00,43.3,33.7,30.30,ENE,72,3.2,3.2,69,0.00,,,0.00,0.00,VWS V14.01,2013-10-29 00:31:00,
2013-10-28 20:32:00,43.3,33.8,30.31,ENE,77,3.0,3.2,69,0.00,,,0.00,0.00,VWS V14.01,2013-10-29 00:32:00,
2013-10-28 20:34:00,43.3,34.2,30.31,East,88,3.7,3.7,70,0.00,,,0.00,0.00,VWS V14.01,2013-10-29 00:34:00,
2013-10-28 20:37:00,42.6,33.5,30.30,East,86,2.7,4.5,70,0.00,,,0.00,0.00,VWS V14.01,2013-10-29 00:37:00,
2013-10-28 20:38:00,42.6,33.7,30.30,ESE,106,2.8,3.7,70,0.00,,,0.00,0.00,VWS V14.01,2013-10-29 00:38:00,
2013-10-28 20:39:00,42.8,34.1,30.29,East,81,2.7,2.8,71,0.00,,,0.00,0.00,VWS V14.01,2013-10-29 00:39:00,
2013-10-28 20:41:00,43.1,34.8,30.30,East,86,3.0,3.0,72,0.00,,,0.00,0.00,VWS V14.01,2013-10-29 00:41:00,
2013-10-28 20:44:00,42.2,34.1,30.30,ESE,107,2.8,2.8,73,0.00,,,0.00,0.00,VWS V14.01,2013-10-29 00:44:00,
2013-10-28 20:45:00,41.8,33.9,30.30,East,82,2.7,2.8,73,0.00,,,0.00,0.00,VWS V14.01,2013-10-29 00:45:00,
2013-10-28 20:46:00,42.3,34.5,30.31,East,97,2.3,2.8,74,0.00,,,0.00,0.00,VWS V14.01,2013-10-29 00:46:00,
2013-10-28 20:47:00,42.1,34.4,30.31,ESE,104,2.3,3.2,74,0.00,,,0.00,0.06,VWS V14.01,2013-10-29 00:47:00,
2013-10-28 20:50:00,41.9,34.5,30.31,ESE,112,2.7,2.7,75,0.00,,,0.00,0.00,VWS V14.01,2013-10-29 00:50:00,
2013-10-28 20:51:00,41.8,32.6,30.31,East,84,1.8,1.8,70,0.00,,,0.00,0.00,VWS V14.01,2013-10-29 00:51:00,
2013-10-28 20:52:00,42.2,35.3,30.31,East,93,3.0,3.0,77,0.00,,,0.00,0.00,VWS V14.01,2013-10-29 00:52:00,
2013-10-28 20:53:00,41.6,34.6,30.31,East,90,1.8,3.0,76,0.00,,,0.00,0.00,VWS V14.01,2013-10-29 00:53:00,
2013-10-28 20:56:00,41.1,34.2,30.30,East,85,1.8,2.7,76,0.00,,,0.00,0.00,VWS V14.01,2013-10-29 00:56:00,
2013-10-28 20:58:00,41.6,35.1,30.30,East,87,2.3,3.2,77,0.00,,,0.00,0.00,VWS V14.01,2013-10-29 00:58:00,
2013-10-28 21:00:00,42.0,35.9,30.31,East,82,2.3,2.3,78,0.00,,,0.00,0.00,VWS V14.01,2013-10-29 01:00:00,
2013-10-28 21:02:00,41.8,35.8,30.31,East,87,2.0,2.2,79,0.00,,,0.00,0.00,VWS V14.01,2013-10-29 01:02:00,
2013-10-28 21:03:00,42.0,36.0,30.31,ENE,64,2.3,2.3,79,0.00,,,0.00,0.00,VWS V14.01,2013-10-29 01:03:00,
2013-10-28 21:04:00,41.7,35.8,30.31,NE,49,2.2,3.0,79,0.00,,,0.00,0.12,VWS V14.01,2013-10-29 01:04:00,
2013-10-28 21:05:00,42.4,36.4,30.31,NE,55,2.0,2.7,79,0.00,,,0.00,0.00,VWS V14.01,2013-10-29 01:05:00,
2013-10-28 21:07:00,42.2,36.0,30.31,ENE,65,2.3,3.2,79,0.00,,,0.00,0.00,VWS V14.01,2013-10-29 01:07:00,
2013-10-28 21:08:00,42.6,36.6,30.36,ENE,69,3.7,3.7,79,0.00,,,0.00,0.00,VWS V14.01,2013-10-29 01:08:00,
2013-10-28 21:10:00,42.2,35.8,30.32,ENE,69,2.5,3.2,78,0.00,,,0.00,0.00,VWS V14.01,2013-10-29 01:10:00,
2013-10-28 21:11:00,42.3,36.0,30.36,NE,55,3.0,3.4,78,0.00,,,0.00,0.00,VWS V14.01,2013-10-29 01:11:00,
2013-10-28 21:12:00,42.7,36.4,30.32,NE,52,3.2,3.5,78,0.00,,,0.00,0.00,VWS V14.01,2013-10-29 01:12:00,
2013-10-28 21:13:00,42.4,36.1,30.31,NE,54,3.7,3.7,78,0.00,,,0.00,0.00,VWS V14.01,2013-10-29 01:13:00,
2013-10-28 21:15:00,42.8,36.4,30.31,ENE,57,3.0,3.2,78,0.00,,,0.00,0.00,VWS V14.01,2013-10-29 01:15:00,
2013-10-28 21:16:00,42.0,35.6,30.32,ENE,66,2.3,3.0,78,0.00,,,0.00,0.00,VWS V14.01,2013-10-29 01:16:00,
2013-10-28 21:17:00,42.5,36.5,30.32,NE,48,2.8,2.8,79,0.00,,,0.00,0.00,VWS V14.01,2013-10-29 01:17:00,
2013-10-28 21:18:00,41.9,35.7,30.32,ENE,59,2.3,2.8,78,0.00,,,0.00,0.00,VWS V14.01,2013-10-29 01:18:00,
2013-10-28 21:19:00,41.9,35.7,30.32,ENE,59,2.3,2.8,78,0.00,,,0.00,0.00,VWS V14.01,2013-10-29 01:19:00,
2013-10-28 21:20:00,42.6,36.6,30.33,NE,48,3.4,3.4,79,0.00,,,0.00,0.43,VWS V14.01,2013-10-29 01:20:00,
2013-10-28 21:21:00,41.5,35.5,30.32,ENE,71,2.3,3.4,79,0.00,,,0.00,0.43,VWS V14.01,2013-10-29 01:21:00,
2013-10-28 21:22:00,41.2,35.0,30.32,ENE,71,1.5,2.3,78,0.00,,,0.00,0.00,VWS V14.01,2013-10-29 01:22:00,
2013-10-28 21:25:00,42.4,36.3,30.31,ENE,63,2.7,3.5,79,0.00,,,0.00,0.00,VWS V14.01,2013-10-29 01:25:00,
2013-10-28 21:26:00,42.1,36.1,30.32,NE,54,2.8,2.8,79,0.00,,,0.00,0.12,VWS V14.01,2013-10-29 01:26:00,
2013-10-28 21:27:00,42.0,36.2,30.32,NE,51,3.5,3.5,80,0.00,,,0.00,0.06,VWS V14.01,2013-10-29 01:27:00,
2013-10-28 21:28:00,41.4,35.4,30.32,ENE,72,2.3,3.5,79,0.00,,,0.00,0.00,VWS V14.01,2013-10-29 01:28:00,
2013-10-28 21:30:00,42.5,36.6,30.32,NE,51,4.7,4.7,79,0.00,,,0.00,0.00,VWS V14.01,2013-10-29 01:30:00,
2013-10-28 21:31:00,42.5,36.6,30.32,NE,51,4.7,4.7,79,0.00,,,0.00,0.00,VWS V14.01,2013-10-29 01:31:00,
2013-10-28 21:32:00,41.8,35.8,30.33,NE,51,2.7,3.9,79,0.00,,,0.00,0.00,VWS V14.01,2013-10-29 01:32:00,
2013-10-28 21:33:00,42.1,36.1,30.33,NE,52,3.2,3.2,79,0.00,,,0.00,0.00,VWS V14.01,2013-10-29 01:33:00,
2013-10-28 21:34:00,42.0,36.2,30.33,NE,52,3.5,3.5,80,0.00,,,0.00,0.00,VWS V14.01,2013-10-29 01:34:00,
2013-10-28 21:36:00,42.0,36.4,30.33,ENE,63,3.9,3.9,80,0.00,,,0.00,0.00,VWS V14.01,2013-10-29 01:36:00,
2013-10-28 21:38:00,42.1,36.2,30.33,ENE,60,4.4,6.4,80,0.00,,,0.00,0.00,VWS V14.01,2013-10-29 01:38:00,
2013-10-28 21:39:00,42.1,36.2,30.33,ENE,60,4.4,6.4,80,0.00,,,0.00,0.00,VWS V14.01,2013-10-29 01:39:00,
2013-10-28 21:41:00,41.5,35.8,30.33,ENE,66,2.8,3.4,80,0.00,,,0.00,0.00,VWS V14.01,2013-10-29 01:41:00,
2013-10-28 21:43:00,42.2,36.8,30.33,ENE,65,4.4,4.4,81,0.00,,,0.00,0.00,VWS V14.01,2013-10-29 01:43:00,
2013-10-28 21:44:00,41.9,36.4,30.33,ENE,61,4.2,4.4,81,0.00,,,0.00,0.00,VWS V14.01,2013-10-29 01:44:00,
2013-10-28 21:45:00,41.9,36.4,30.33,East,86,4.2,4.2,81,0.00,,,0.00,0.00,VWS V14.01,2013-10-29 01:45:00,
2013-10-28 21:47:00,41.6,36.1,30.33,ENE,78,5.4,5.4,81,0.00,,,0.00,0.00,VWS V14.01,2013-10-29 01:47:00,
2013-10-28 21:48:00,41.6,36.0,30.33,East,85,3.9,5.4,80,0.00,,,0.00,0.00,VWS V14.01,2013-10-29 01:48:00,
2013-10-28 21:50:00,42.4,36.9,30.33,ENE,58,6.1,6.1,81,0.00,,,0.00,0.00,VWS V14.01,2013-10-29 01:50:00,
2013-10-28 21:51:00,41.8,36.0,30.33,NE,49,3.9,6.3,79,0.00,,,0.00,0.00,VWS V14.01,2013-10-29 01:51:00,
2013-10-28 21:52:00,42.0,36.3,30.33,NNE,30,3.2,3.5,80,0.00,,,0.00,0.00,VWS V14.01,2013-10-29 01:52:00,
2013-10-28 21:55:00,41.2,35.4,30.33,NE,50,4.7,4.7,80,0.00,,,0.00,0.00,VWS V14.01,2013-10-29 01:55:00,
2013-10-28 21:56:00,41.2,35.4,30.33,NE,50,4.7,4.7,80,0.00,,,0.00,0.00,VWS V14.01,2013-10-29 01:56:00,
2013-10-28 21:57:00,42.1,36.4,30.34,East,97,5.1,5.1,80,0.00,,,0.00,0.00,VWS V14.01,2013-10-29 01:57:00,
2013-10-28 22:01:00,41.0,35.0,30.33,NE,50,3.4,5.1,79,0.00,,,0.00,0.00,VWS V14.01,2013-10-29 02:01:00,
2013-10-28 22:02:00,41.6,35.8,30.33,ENE,66,5.1,5.9,80,0.00,,,0.00,0.00,VWS V14.01,2013-10-29 02:02:00,
2013-10-28 22:03:00,41.0,35.2,30.34,NE,53,3.9,5.1,80,0.00,,,0.00,0.00,VWS V14.01,2013-10-29 02:03:00,
2013-10-28 22:04:00,41.3,35.4,30.34,ENE,58,4.0,4.0,79,0.00,,,0.00,0.00,VWS V14.01,2013-10-29 02:04:00,
2013-10-28 22:07:00,40.6,34.6,30.34,NE,49,3.9,4.0,79,0.00,,,0.00,0.00,VWS V14.01,2013-10-29 02:07:00,
2013-10-28 22:08:00,41.2,35.2,30.34,NE,47,4.2,4.7,79,0.00,,,0.00,0.00,VWS V14.01,2013-10-29 02:08:00,
2013-10-28 22:12:00,40.6,34.4,30.34,ENE,68,6.1,6.1,78,0.00,,,0.00,0.00,VWS V14.01,2013-10-29 02:12:00,
2013-10-28 22:13:00,40.8,34.5,30.34,NE,52,4.2,6.1,78,0.00,,,0.00,0.00,VWS V14.01,2013-10-29 02:13:00,
2013-10-28 22:14:00,41.0,34.7,30.34,NE,55,6.4,8.3,78,0.00,,,0.00,0.00,VWS V14.01,2013-10-29 02:14:00,
2013-10-28 22:15:00,41.0,34.7,30.34,NE,55,6.4,8.3,78,0.00,,,0.00,0.00,VWS V14.01,2013-10-29 02:15:00,
2013-10-28 22:16:00,40.7,34.4,30.34,NE,43,4.5,4.5,78,0.00,,,0.00,0.00,VWS V14.01,2013-10-29 02:16:00,
2013-10-28 22:18:00,40.9,34.3,30.35,NE,51,4.5,5.2,77,0.00,,,0.00,0.00,VWS V14.01,2013-10-29 02:18:00,
2013-10-28 22:19:00,40.8,34.3,30.34,NE,52,4.5,4.5,77,0.00,,,0.00,0.00,VWS V14.01,2013-10-29 02:19:00,
2013-10-28 22:20:00,41.2,34.8,30.34,NE,42,6.6,6.6,78,0.00,,,0.00,0.00,VWS V14.01,2013-10-29 02:20:00,
2013-10-28 22:21:00,40.3,33.8,30.34,NE,47,4.0,5.4,77,0.00,,,0.00,0.00,VWS V14.01,2013-10-29 02:21:00,
2013-10-28 22:25:00,40.7,34.5,30.34,NE,49,4.4,5.2,78,0.00,,,0.00,0.00,VWS V14.01,2013-10-29 02:25:00,
2013-10-28 22:26:00,40.2,33.9,30.35,NE,55,4.0,4.0,78,0.00,,,0.00,0.00,VWS V14.01,2013-10-29 02:26:00,
2013-10-28 22:27:00,41.0,34.7,30.35,NE,48,5.6,5.6,78,0.00,,,0.00,0.00,VWS V14.01,2013-10-29 02:27:00,
2013-10-28 22:30:00,40.5,34.1,30.34,NE,37,4.9,7.5,78,0.00,,,0.00,0.06,VWS V14.01,2013-10-29 02:30:00,
2013-10-28 22:31:00,40.4,34.0,30.36,ENE,63,4.5,8.0,78,0.00,,,0.00,0.00,VWS V14.01,2013-10-29 02:31:00,
2013-10-28 22:32:00,40.3,33.8,30.35,ENE,58,5.2,6.9,77,0.00,,,0.00,0.00,VWS V14.01,2013-10-29 02:32:00,
2013-10-28 22:33:00,40.3,33.8,30.35,ENE,58,5.2,6.9,77,0.00,,,0.00,0.00,VWS V14.01,2013-10-29 02:33:00,
2013-10-28 22:35:00,40.4,33.5,30.36,NE,52,5.9,8.3,76,0.00,,,0.00,0.12,VWS V14.01,2013-10-29 02:35:00,
2013-10-28 22:36:00,40.5,33.5,30.35,NE,40,5.6,5.9,76,0.00,,,0.00,0.00,VWS V14.01,2013-10-29 02:36:00,
2013-10-28 22:37:00,40.6,33.5,30.35,NE,42,6.1,6.1,76,0.00,,,0.00,0.00,VWS V14.01,2013-10-29 02:37:00,
2013-10-28 22:38:00,40.2,32.9,30.35,ENE,68,4.9,7.1,75,0.00,,,0.00,0.00,VWS V14.01,2013-10-29 02:38:00,
2013-10-28 22:39:00,40.3,33.1,30.35,ENE,68,4.7,4.7,75,0.00,,,0.00,0.00,VWS V14.01,2013-10-29 02:39:00,
2013-10-28 22:41:00,39.8,32.6,30.35,NE,51,4.4,6.3,75,0.00,,,0.00,0.73,VWS V14.01,2013-10-29 02:41:00,
2013-10-28 22:42:00,39.6,32.5,30.35,NE,49,3.9,6.3,75,0.00,,,0.00,0.00,VWS V14.01,2013-10-29 02:42:00,
2013-10-28 22:44:00,40.4,33.4,30.35,ENE,57,7.3,7.6,76,0.00,,,0.00,0.00,VWS V14.01,2013-10-29 02:44:00,
2013-10-28 22:47:00,40.0,32.6,30.36,NE,50,5.1,6.3,75,0.00,,,0.00,0.00,VWS V14.01,2013-10-29 02:47:00,
2013-10-28 22:48:00,40.4,32.9,30.36,NE,53,8.0,8.0,74,0.00,,,0.00,0.00,VWS V14.01,2013-10-29 02:48:00,
2013-10-28 22:49:00,39.7,32.2,30.35,ENE,64,5.6,8.0,74,0.00,,,0.00,0.00,VWS V14.01,2013-10-29 02:49:00,
2013-10-28 22:52:00,39.8,32.3,30.36,ENE,69,3.9,6.8,74,0.00,,,0.00,0.00,VWS V14.01,2013-10-29 02:52:00,
2013-10-28 22:53:00,40.0,32.4,30.36,NE,52,6.9,6.9,74,0.00,,,0.00,0.00,VWS V14.01,2013-10-29 02:53:00,
2013-10-28 22:54:00,39.5,31.7,30.35,ENE,57,4.7,6.9,73,0.00,,,0.00,0.00,VWS V14.01,2013-10-29 02:54:00,
2013-10-28 22:55:00,39.5,31.7,30.36,NE,34,6.4,6.4,73,0.00,,,0.00,0.00,VWS V14.01,2013-10-29 02:55:00,
2013-10-28 22:58:00,39.0,30.9,30.36,NE,40,5.7,7.3,72,0.00,,,0.00,0.00,VWS V14.01,2013-10-29 02:58:00,
2013-10-28 22:59:00,39.1,31.0,30.36,ENE,58,4.2,5.7,73,0.00,,,0.00,0.00,VWS V14.01,2013-10-29 02:59:00,
2013-10-28 23:00:00,39.6,31.7,30.36,NE,44,4.4,4.4,73,0.00,,,0.00,0.00,VWS V14.01,2013-10-29 03:00:00,
2013-10-28 23:01:00,39.7,31.6,30.36,NNE,31,5.4,6.3,73,0.00,,,0.00,0.00,VWS V14.01,2013-10-29 03:01:00,
2013-10-28 23:04:00,39.3,30.9,30.40,ENE,60,6.1,7.5,72,0.00,,,0.00,0.00,VWS V14.01,2013-10-29 03:04:00,
2013-10-28 23:05:00,39.7,31.3,30.37,NE,46,5.4,6.1,72,0.00,,,0.00,0.00,VWS V14.01,2013-10-29 03:05:00,
2013-10-28 23:06:00,39.0,30.7,30.37,NE,47,4.0,4.7,72,0.00,,,0.00,0.00,VWS V14.01,2013-10-29 03:06:00,
2013-10-28 23:07:00,39.6,31.2,30.36,ENE,65,6.4,6.4,72,0.00,,,0.00,0.00,VWS V14.01,2013-10-29 03:07:00,
2013-10-28 23:08:00,39.1,30.7,30.37,NE,53,5.4,6.4,72,0.00,,,0.00,0.73,VWS V14.01,2013-10-29 03:08:00,
2013-10-28 23:11:00,39.8,31.1,30.37,NE,47,8.1,8.1,71,0.00,,,0.00,0.00,VWS V14.01,2013-10-29 03:11:00,
2013-10-28 23:12:00,39.0,30.2,30.37,NE,55,5.9,8.1,71,0.00,,,0.00,0.00,VWS V14.01,2013-10-29 03:12:00,
2013-10-28 23:13:00,39.0,30.1,30.36,ENE,57,5.7,8.1,70,0.00,,,0.00,0.00,VWS V14.01,2013-10-29 03:13:00,
2013-10-28 23:14:00,39.3,30.5,30.36,East,81,3.9,4.7,71,0.00,,,0.00,0.00,VWS V14.01,2013-10-29 03:14:00,
2013-10-28 23:17:00,38.7,30.1,30.36,ENE,61,4.7,5.9,71,0.00,,,0.00,0.00,VWS V14.01,2013-10-29 03:17:00,
2013-10-28 23:18:00,39.0,30.4,30.37,ENE,59,3.5,4.7,71,0.00,,,0.00,0.00,VWS V14.01,2013-10-29 03:18:00,
2013-10-28 23:19:00,38.9,30.3,30.36,ENE,57,5.7,5.7,71,0.00,,,0.00,0.00,VWS V14.01,2013-10-29 03:19:00,
2013-10-28 23:20:00,38.8,30.2,30.37,NE,49,4.2,5.7,71,0.00,,,0.00,0.00,VWS V14.01,2013-10-29 03:20:00,
2013-10-28 23:23:00,38.6,29.7,30.35,ENE,59,3.9,6.1,70,0.00,,,0.00,0.00,VWS V14.01,2013-10-29 03:23:00,
2013-10-28 23:25:00,38.7,29.8,30.36,ENE,69,5.1,5.1,70,0.00,,,0.00,0.00,VWS V14.01,2013-10-29 03:25:00,
2013-10-28 23:26:00,38.5,29.8,30.37,NE,52,5.4,5.4,71,0.00,,,0.00,0.00,VWS V14.01,2013-10-29 03:26:00,
2013-10-28 23:29:00,38.7,30.1,30.37,ENE,57,5.9,5.9,71,0.00,,,0.00,0.00,VWS V14.01,2013-10-29 03:29:00,
2013-10-28 23:31:00,38.6,29.9,30.36,ENE,75,5.7,6.8,71,0.00,,,0.00,0.00,VWS V14.01,2013-10-29 03:31:00,
2013-10-28 23:32:00,38.3,29.4,30.36,NNE,26,5.7,6.6,70,0.00,,,0.00,0.00,VWS V14.01,2013-10-29 03:32:00,
2013-10-28 23:33:00,38.3,29.4,30.41,ENE,66,4.5,5.7,70,0.00,,,0.00,0.00,VWS V14.01,2013-10-29 03:33:00,
2013-10-28 23:35:00,38.2,29.2,30.37,NE,48,4.9,7.3,70,0.00,,,0.00,0.00,VWS V14.01,2013-10-29 03:35:00,
2013-10-28 23:36:00,38.2,29.1,30.37,ENE,74,5.6,5.6,70,0.00,,,0.00,0.00,VWS V14.01,2013-10-29 03:36:00,
2013-10-28 23:38:00,38.0,29.1,30.37,NE,50,6.6,6.6,70,0.00,,,0.00,0.00,VWS V14.01,2013-10-29 03:38:00,
2013-10-28 23:40:00,38.5,29.4,30.37,NE,54,4.2,7.5,70,0.00,,,0.00,0.00,VWS V14.01,2013-10-29 03:40:00,
2013-10-28 23:41:00,39.0,29.1,30.37,NE,55,5.7,5.7,67,0.00,,,0.00,0.00,VWS V14.01,2013-10-29 03:41:00,
2013-10-28 23:42:00,38.0,28.7,30.38,NE,46,3.2,5.7,69,0.00,,,0.00,0.00,VWS V14.01,2013-10-29 03:42:00,
2013-10-28 23:43:00,38.0,28.8,30.37,ENE,57,4.0,4.0,69,0.00,,,0.00,0.00,VWS V14.01,2013-10-29 03:43:00,
2013-10-28 23:46:00,37.9,28.8,30.37,East,81,6.6,6.6,69,0.00,,,0.00,0.00,VWS V14.01,2013-10-29 03:46:00,
2013-10-28 23:47:00,38.3,29.0,30.36,ENE,69,5.1,6.1,69,0.00,,,0.00,0.00,VWS V14.01,2013-10-29 03:47:00,
2013-10-28 23:49:00,38.0,29.0,30.37,ENE,61,4.2,4.2,70,0.00,,,0.00,0.00,VWS V14.01,2013-10-29 03:49:00,
2013-10-28 23:50:00,38.2,29.2,30.37,ENE,67,5.2,5.2,70,0.00,,,0.00,0.00,VWS V14.01,2013-10-29 03:50:00,
2013-10-28 23:52:00,38.2,29.0,30.37,NE,51,5.7,5.7,69,0.00,,,0.00,0.00,VWS V14.01,2013-10-29 03:52:00,
2013-10-28 23:53:00,38.5,29.2,30.36,ENE,71,7.1,7.1,69,0.00,,,0.00,0.00,VWS V14.01,2013-10-29 03:53:00,
2013-10-28 23:54:00,37.8,28.5,30.36,ENE,57,6.4,6.4,69,0.00,,,0.00,0.00,VWS V14.01,2013-10-29 03:54:00,
2013-10-28 23:55:00,38.0,28.8,30.36,ENE,61,5.1,6.4,69,0.00,,,0.00,0.43,VWS V14.01,2013-10-29 03:55:00,
2013-10-28 23:56:00,38.1,28.9,30.37,NE,45,5.7,5.7,69,0.00,,,0.00,0.43,VWS V14.01,2013-10-29 03:56:00,
2013-10-28 23:58:00,38.0,27.0,30.37,ENE,75,5.4,5.4,64,0.00,,,0.00,0.00,VWS V14.01,2013-10-29 03:58:00,